Laatste waarneming: 01:52
Temperatuur:16,9°C
Dauwpunt:11,9°C
Rel. vocht:72,0%
Natte-bol:14,4°C
Wind (gem. 10 min.):1,1 m/s
Wind (max. 10 min.):1.7E+308 m/s
Windrichting:104°
Neerslagsom:0,0 mm
Neerslagintensiteit:0,0 mm/u
Luchtdruk:1019,0 hPa
Straling:0,0 W/m2
 
Maximumtemp.:17,9°C (00:00)
Minimumtemp.:16,9°C (01:52)
Hoogste windstoot:- m/s (00:14)


Bekijk de verwachting.

Bekijk de grafieken.
Bekijk het weekoverzicht.
Bekijk het maandoverzicht.
Bekijk het jaaroverzicht.
Dagtabel
Tijd Temp. Dauwp. Natte-bol Rel. Hum. Windsnelh. Windricht. Windstoot Neerslag Straling Luchtdruk
 
01:52 16,9 11,9 14,4 72,0 1,1 104 - 0,0 0 1.019,0
01:51 16,9 11,9 14,4 72,0 0,9 88 - 0,0 0 1.018,9
01:50 17,0 11,9 14,4 72,0 0,8 158 - 0,0 0 1.018,9
01:49 16,9 11,9 14,4 72,0 0,8 98 - 0,0 0 1.018,9
01:48 17,0 11,9 14,4 72,0 0,8 130 - 0,0 0 1.018,9
01:47 17,0 11,9 14,4 72,0 0,8 155 - 0,0 0 1.018,9
01:46 17,0 12,0 14,4 72,0 0,9 113 - 0,0 0 1.018,9
01:45 17,0 12,0 14,5 72,0 1,0 118 - 0,0 0 1.019,0
01:44 17,0 12,0 14,5 72,0 0,8 135 - 0,0 0 1.019,0
01:43 17,0 12,0 14,5 72,0 0,7 77 - 0,0 0 1.019,0
01:42 17,0 12,0 14,5 72,0 0,5 116 - 0,0 0 1.019,0
01:41 17,0 12,0 14,5 72,0 0,4 188 - 0,0 0 1.019,0
01:40 17,1 12,0 14,5 72,0 0,4 97 - 0,0 0 1.019,1
01:39 17,1 12,0 14,5 72,0 0,4 152 - 0,0 0 1.019,1
01:38 17,1 12,0 14,5 72,0 0,3 100 - 0,0 0 1.019,1
01:37 17,1 12,1 14,5 72,0 0,1 345 - 0,0 0 1.019,1
01:36 17,1 12,0 14,5 71,5 0,1 241 - 0,0 0 1.019,1
01:35 17,1 11,8 14,4 71,0 0,2 73 - 0,0 0 1.019,1
01:34 17,1 11,9 14,4 71,0 0,5 120 - 0,0 0 1.019,1
01:33 17,1 11,9 14,5 71,1 0,7 103 - 0,0 0 1.019,1
01:32 17,1 12,1 14,6 72,0 0,7 78 - 0,0 0 1.019,1
01:31 17,1 12,1 14,6 72,0 0,6 72 - 0,0 0 1.019,1
01:30 17,1 12,1 14,6 72,0 0,4 142 - 0,0 0 1.019,1
01:29 17,1 12,1 14,6 72,0 0,5 23 - 0,0 0 1.019,2
01:28 17,2 12,0 14,5 71,2 0,5 107 - 0,0 0 1.019,2
01:27 17,2 11,9 14,5 71,0 0,6 116 - 0,0 0 1.019,1
01:26 17,2 11,9 14,5 71,0 0,6 87 - 0,0 0 1.019,1
01:25 17,2 11,9 14,5 71,0 0,6 98 - 0,0 0 1.019,2
01:24 17,2 12,0 14,5 71,0 0,7 140 - 0,0 0 1.019,1
01:23 17,2 12,0 14,5 71,0 0,8 107 - 0,0 0 1.019,1
01:22 17,2 12,0 14,5 71,0 0,9 103 - 0,0 0 1.019,2
01:21 17,2 12,0 14,5 71,0 0,5 153 - 0,0 0 1.019,2
01:20 17,2 12,0 14,5 71,0 0,4 276 - 0,0 0 1.019,2
01:19 17,3 12,0 14,6 71,0 0,3 130 - 0,0 0 1.019,3
01:18 17,3 12,0 14,6 71,0 0,3 244 - 0,0 0 1.019,3
01:17 17,3 12,0 14,6 71,0 0,1 73 - 0,0 0 1.019,2
01:16 17,3 12,0 14,6 71,0 0,4 279 - 0,0 0 1.019,2
01:15 17,3 12,0 14,6 71,0 0,6 290 - 0,0 0 1.019,2
01:14 17,3 12,1 14,6 71,0 0,6 35 - 0,0 0 1.019,2
01:13 17,3 12,1 14,6 71,0 0,4 325 - 0,0 0 1.019,3
01:12 17,3 12,1 14,6 71,0 0,5 245 - 0,0 0 1.019,3
01:11 17,3 12,1 14,6 71,0 0,1 328 - 0,0 0 1.019,3
01:10 17,3 12,1 14,7 71,0 0,2 113 - 0,0 0 1.019,3
01:09 17,3 12,1 14,7 71,0 0,4 205 - 0,0 0 1.019,3
01:08 17,4 12,1 14,7 71,0 0,3 99 - 0,0 0 1.019,3
01:07 17,4 12,1 14,7 71,0 0,5 103 - 0,0 0 1.019,3
01:06 17,4 12,2 14,7 71,0 0,6 147 - 0,0 0 1.019,3
01:05 17,4 12,2 14,7 71,0 0,5 180 - 0,0 0 1.019,3
01:04 17,4 12,2 14,7 71,0 0,4 118 - 0,0 0 1.019,3
01:03 17,4 12,2 14,7 71,0 0,5 100 - 0,0 0 1.019,4
01:02 17,4 12,2 14,7 71,0 0,4 137 - 0,0 0 1.019,4
01:01 17,4 12,2 14,8 71,0 0,4 137 - 0,0 0 1.019,4
01:00 17,4 12,2 14,7 71,0 0,3 103 - 0,0 0 1.019,4
 
00:59 17,4 12,2 14,8 71,0 0,3 216 - 0,0 0 1.019,4
00:58 17,4 12,2 14,7 71,0 0,3 95 - 0,0 0 1.019,4
00:57 17,4 12,2 14,8 71,0 0,4 80 - 0,0 0 1.019,4
00:56 17,4 12,2 14,8 71,0 0,4 109 - 0,0 0 1.019,4
00:55 17,4 12,1 14,7 70,5 0,4 105 - 0,0 0 1.019,4
00:54 17,4 12,1 14,7 70,7 0,6 107 - 0,0 0 1.019,4
00:53 17,4 12,0 14,6 70,2 0,6 105 - 0,0 0 1.019,4
00:52 17,4 12,0 14,6 70,0 0,7 99 - 0,0 0 1.019,4
00:51 17,4 12,0 14,6 70,0 0,7 101 - 0,0 0 1.019,3
00:50 17,4 12,0 14,6 70,0 0,6 128 - 0,0 0 1.019,4
00:49 17,4 12,0 14,6 70,0 0,6 70 - 0,0 0 1.019,4
00:48 17,4 12,0 14,6 70,0 0,7 116 - 0,0 0 1.019,4
00:47 17,4 12,0 14,6 70,0 0,7 127 - 0,0 0 1.019,3
00:46 17,4 12,0 14,6 70,0 0,6 158 - 0,0 0 1.019,3
00:45 17,5 12,0 14,6 70,0 0,6 107 - 0,0 0 1.019,3
00:44 17,5 12,0 14,6 70,0 0,7 95 - 0,0 0 1.019,3
00:43 17,5 12,0 14,6 70,0 0,7 107 - 0,0 0 1.019,4
00:42 17,5 12,0 14,7 70,0 0,7 101 - 0,0 0 1.019,3
00:41 17,5 12,0 14,7 70,0 0,7 131 - 0,0 0 1.019,3
00:40 17,5 12,0 14,7 70,0 0,6 149 - 0,0 0 1.019,4
00:39 17,5 12,0 14,7 70,0 0,6 89 - 0,0 0 1.019,4
00:38 17,5 12,1 14,7 70,0 0,8 99 - 0,0 0 1.019,4
00:37 17,5 12,1 14,7 70,0 0,9 99 - 0,0 0 1.019,4
00:36 17,5 12,1 14,7 70,0 0,9 101 - 0,0 0 1.019,4
00:35 17,6 12,1 14,7 70,0 0,8 102 - 0,0 0 1.019,4
00:34 17,6 12,1 14,7 70,0 0,8 97 - 0,0 0 1.019,4
00:33 17,6 12,1 14,7 70,0 0,8 93 - 0,0 0 1.019,5
00:32 17,6 12,1 14,7 70,0 0,8 86 - 0,0 0 1.019,5
00:31 17,6 12,1 14,8 70,0 0,6 83 - 0,0 0 1.019,5
00:30 17,6 12,2 14,8 70,0 0,6 185 - 0,0 0 1.019,5
00:29 17,6 12,1 14,8 70,0 0,7 148 - 0,0 0 1.019,5
00:28 17,6 12,1 14,8 70,0 0,7 128 - 0,0 0 1.019,5
00:27 17,6 12,2 14,8 70,0 0,7 109 - 0,0 0 1.019,5
00:26 17,6 12,2 14,8 70,0 0,7 153 - 0,0 0 1.019,5
00:25 17,7 12,2 14,8 70,0 0,8 117 - 0,0 0 1.019,5
00:24 17,7 12,2 14,8 70,0 0,8 162 - 0,0 0 1.019,5
00:23 17,7 12,2 14,8 70,0 0,8 98 - 0,0 0 1.019,5
00:22 17,7 12,0 14,7 69,0 0,9 111 - 0,0 0 1.019,5
00:21 17,7 12,0 14,7 69,0 0,9 107 - 0,0 0 1.019,5
00:20 17,7 12,0 14,7 69,0 0,4 91 - 0,0 0 1.019,6
00:19 17,7 12,0 14,7 69,0 0,1 269 - 0,0 0 1.019,6
00:18 17,7 12,0 14,7 69,0 0,3 120 - 0,0 0 1.019,6
00:17 17,7 12,0 14,7 69,0 0,6 87 - 0,0 0 1.019,6
00:16 17,7 12,0 14,7 69,0 0,6 170 - 0,0 0 1.019,6
00:15 17,7 12,0 14,7 69,0 0,8 83 - 0,0 0 1.019,6
00:14 17,7 12,0 14,7 69,0 0,9 88 - 0,0 0 1.019,6
00:13 17,7 12,1 14,8 69,0 1,0 167 - 0,0 0 1.019,6
00:12 17,8 12,1 14,8 69,0 0,9 136 - 0,0 0 1.019,6
00:11 17,8 12,1 14,8 69,0 0,5 107 - 0,0 0 1.019,6
00:10 17,8 12,1 14,8 69,0 0,3 260 - 0,0 0 1.019,6
00:09 17,8 12,1 14,8 69,0 0,3 336 - 0,0 0 1.019,6
00:08 17,8 12,1 14,8 69,0 0,2 163 - 0,0 0 1.019,6
00:07 17,8 12,1 14,8 69,0 0,6 270 - 0,0 0 1.019,7
00:06 17,8 12,1 14,8 69,0 0,7 172 - 0,0 0 1.019,7
00:05 17,8 12,2 14,8 69,0 0,6 200 - 0,0 0 1.019,7
00:04 17,8 12,2 14,8 69,0 0,5 76 - 0,0 0 1.019,7
00:03 17,8 12,2 14,8 69,0 0,4 80 - 0,0 0 1.019,7
00:02 17,9 12,2 14,9 69,0 0,6 215 - 0,0 0 1.019,7
00:01 17,9 12,2 14,9 69,0 0,5 172 - 0,0 0 1.019,7
00:00 17,9 12,2 14,9 69,0 0,4 324 - 0,0 0 1.019,7
 
23:59 17,9 12,2 14,9 69,0 0,9 15 - 0,0 0 1.019,8
23:58 17,9 12,2 14,9 69,0 0,9 323 - 0,0 0 1.019,8
23:57 17,9 12,2 14,9 69,0 0,5 20 - 0,0 0 1.019,8
23:56 17,9 12,3 14,9 69,0 0,6 133 - 0,0 0 1.019,8
23:55 18,0 12,3 15,0 69,0 0,7 91 - 0,0 0 1.019,8
23:54 18,0 12,3 15,0 69,0 0,7 79 - 0,0 0 1.019,8
23:53 18,0 12,3 15,0 69,0 0,8 161 - 0,0 0 1.019,8
23:52 18,0 12,3 15,0 69,0 0,7 72 - 0,0 0 1.019,8
23:51 18,0 12,3 15,0 69,0 0,1 163 - 0,0 0 1.019,8
23:50 18,1 12,4 15,0 69,0 0,1 301 - 0,0 0 1.019,8
23:49 18,1 12,4 15,1 69,0 0,2 86 - 0,0 0 1.019,8
23:48 18,1 12,2 14,9 68,1 0,3 178 - 0,0 0 1.019,9
23:47 18,1 12,1 14,9 68,0 0,2 261 - 0,0 0 1.019,9
23:46 18,1 12,2 14,9 68,0 0,7 81 - 0,0 0 1.019,9
23:45 18,1 12,2 15,0 68,0 1,2 98 - 0,0 0 1.019,9
23:44 18,1 12,2 15,0 68,0 1,0 136 - 0,0 0 1.019,9
23:43 18,2 12,2 15,0 68,0 0,7 118 - 0,0 0 1.019,9
23:42 18,2 12,3 15,0 68,0 0,8 82 - 0,0 0 1.019,9
23:41 18,2 12,3 15,0 68,0 0,8 101 - 0,0 0 1.019,9
23:40 18,2 12,3 15,0 68,0 0,3 179 - 0,0 0 1.019,9
23:39 18,2 12,3 15,1 68,0 0,4 327 - 0,0 0 1.019,9
23:38 18,2 12,3 15,1 68,0 0,1 223 - 0,0 0 1.019,9
23:37 18,2 12,3 15,1 68,0 0,2 82 - 0,0 0 1.020,0
23:36 18,3 12,3 15,1 68,0 0,2 253 - 0,0 0 1.020,0
23:35 18,3 12,3 15,1 68,0 0,5 95 - 0,0 0 1.020,0
23:34 18,3 12,4 15,1 68,0 0,9 106 - 0,0 0 1.020,0
23:33 18,3 12,4 15,1 68,0 0,7 94 - 0,0 0 1.020,0
23:32 18,3 12,4 15,1 68,0 0,7 157 - 0,0 0 1.020,0
23:31 18,3 12,4 15,1 68,0 0,6 192 - 0,0 0 1.020,0
23:30 18,3 12,4 15,1 68,0 0,3 327 - 0,0 0 1.020,1
23:29 18,3 12,4 15,1 68,0 0,2 179 - 0,0 0 1.020,1
23:28 18,3 12,4 15,2 68,0 0,2 202 - 0,0 0 1.020,0
23:27 18,3 12,4 15,2 68,0 0,3 34 - 0,0 0 1.020,0
23:26 18,3 12,4 15,2 68,0 0,5 76 - 0,0 0 1.020,0
23:25 18,3 12,2 15,1 67,2 0,6 136 - 0,0 0 1.020,0
23:24 18,4 12,2 15,0 67,0 0,6 91 - 0,0 0 1.020,0
23:23 18,4 12,2 15,1 67,0 0,7 143 - 0,0 0 1.020,0
23:22 18,4 12,2 15,0 67,0 0,8 151 - 0,0 0 1.020,0
23:21 18,4 12,2 15,1 67,0 0,5 93 - 0,0 0 1.019,9
23:20 18,4 12,2 15,1 67,0 0,5 214 - 0,0 0 1.020,0
23:19 18,4 12,2 15,1 67,0 0,8 189 - 0,0 0 1.020,0
23:18 18,4 12,2 15,1 67,0 0,8 171 - 0,0 0 1.019,9
23:17 18,4 12,2 15,1 67,0 0,5 140 - 0,0 0 1.020,0
23:16 18,4 12,3 15,1 67,0 0,7 58 - 0,0 0 1.020,0
23:15 18,4 12,3 15,1 67,0 0,4 44 - 0,0 0 1.020,0
23:14 18,4 12,3 15,1 67,0 0,4 207 - 0,0 0 1.020,0
23:13 18,4 12,3 15,1 67,0 0,8 241 - 0,0 0 1.020,0
23:12 18,4 12,3 15,1 67,0 0,2 151 - 0,0 0 1.020,1
23:11 18,4 12,3 15,1 67,0 0,4 7 - 0,0 0 1.020,1
23:10 18,5 12,3 15,1 67,0 0,3 16 - 0,0 0 1.020,1
23:09 18,4 12,3 15,1 67,0 0,3 208 - 0,0 0 1.020,1
23:08 18,5 12,3 15,1 67,0 0,6 104 - 0,0 0 1.020,1
23:07 18,5 12,3 15,1 67,0 1,0 47 - 0,0 0 1.020,1
23:06 18,5 12,3 15,2 67,0 0,7 59 - 0,0 0 1.020,1
23:05 18,5 12,3 15,2 67,0 0,4 305 - 0,0 0 1.020,1
23:04 18,5 12,3 15,2 67,0 0,4 95 - 0,0 0 1.020,0
23:03 18,5 12,3 15,2 67,0 0,9 146 - 0,0 0 1.020,0
23:02 18,5 12,3 15,2 67,0 0,8 63 - 0,0 0 1.020,1
23:01 18,5 12,4 15,2 67,0 0,8 160 - 0,0 0 1.020,1
23:00 18,5 12,4 15,2 67,0 1,0 133 - 0,0 0 1.020,1
 
22:59 18,5 12,4 15,2 67,0 0,8 167 - 0,0 0 1.020,1
22:58 18,5 12,4 15,2 67,0 0,7 239 - 0,0 0 1.020,1
22:57 18,5 12,4 15,2 67,0 0,9 312 - 0,0 0 1.020,0
22:56 18,5 12,4 15,2 67,0 0,5 350 - 0,0 0 1.020,0
22:55 18,6 12,4 15,2 67,0 0,4 147 - 0,0 0 1.020,1
22:54 18,6 12,4 15,2 67,0 0,9 111 - 0,0 0 1.020,0
22:53 18,5 12,4 15,2 67,0 1,0 64 - 0,0 0 1.020,1
22:52 18,6 12,4 15,2 67,0 1,0 101 - 0,0 0 1.020,1
22:51 18,6 12,4 15,2 67,0 1,0 111 - 0,0 0 1.020,1
22:50 18,6 12,4 15,2 67,0 0,7 86 - 0,0 0 1.020,1
22:49 18,6 12,4 15,2 67,0 0,4 217 - 0,0 0 1.020,2
22:48 18,6 12,4 15,2 67,0 0,6 53 - 0,0 0 1.020,2
22:47 18,6 12,4 15,3 67,0 0,6 25 - 0,0 0 1.020,2
22:46 18,6 12,4 15,3 67,0 0,7 263 - 0,0 0 1.020,2
22:45 18,6 12,4 15,3 67,0 0,5 1 - 0,0 0 1.020,2
22:44 18,6 12,5 15,3 67,0 0,6 123 - 0,0 0 1.020,3
22:43 18,6 12,4 15,3 67,0 0,8 121 - 0,0 0 1.020,2
22:42 18,6 12,5 15,3 67,0 0,1 174 - 0,0 0 1.020,2
22:41 18,6 12,5 15,3 67,0 0,2 320 - 0,0 0 1.020,2
22:40 18,6 12,5 15,3 67,0 0,5 101 - 0,0 0 1.020,2
22:39 18,6 12,5 15,3 67,0 0,8 1 - 0,0 0 1.020,2
22:38 18,6 12,5 15,3 67,0 0,4 49 - 0,0 0 1.020,2
22:37 18,7 12,3 15,2 66,1 0,4 229 - 0,0 0 1.020,2
22:36 18,6 12,3 15,2 66,0 0,9 303 - 0,0 0 1.020,2
22:35 18,7 12,3 15,2 66,0 0,9 201 - 0,0 0 1.020,2
22:34 18,7 12,3 15,2 66,0 1,2 167 - 0,0 0 1.020,3
22:33 18,7 12,3 15,2 66,0 1,3 111 - 0,0 0 1.020,3
22:32 18,7 12,3 15,2 66,0 1,2 132 - 0,0 0 1.020,3
22:31 18,7 12,3 15,2 66,0 1,0 140 - 0,0 0 1.020,3
22:30 18,7 12,3 15,2 66,0 0,4 73 - 0,0 0 1.020,3
22:29 18,8 12,4 15,3 66,0 0,6 316 - 0,0 0 1.020,3
22:28 18,7 12,4 15,2 66,0 0,9 16 - 0,0 0 1.020,3
22:27 18,8 12,4 15,3 66,0 0,6 22 - 0,0 0 1.020,3
22:26 18,8 12,4 15,3 66,0 0,3 208 - 0,0 0 1.020,3
22:25 18,8 12,4 15,3 66,0 0,2 340 - 0,0 0 1.020,4
22:24 18,8 12,4 15,3 66,0 1,0 88 - 0,0 0 1.020,4
22:23 18,8 12,4 15,3 66,0 1,5 103 - 0,0 0 1.020,4
22:22 18,8 12,4 15,3 66,0 0,9 88 - 0,0 0 1.020,4
22:21 18,8 12,4 15,3 66,0 0,5 236 - 0,0 0 1.020,4
22:20 18,8 12,4 15,3 66,0 0,2 203 - 0,0 0 1.020,4
22:19 18,8 12,5 15,3 66,0 0,6 25 - 0,0 0 1.020,4
22:18 18,8 12,5 15,3 66,0 1,1 74 - 0,0 0 1.020,5
22:17 18,9 12,5 15,4 66,0 0,3 18 - 0,0 0 1.020,4
22:16 18,9 12,5 15,4 66,0 0,4 217 - 0,0 0 1.020,4
22:15 18,9 12,5 15,4 66,0 1,0 113 - 0,0 0 1.020,5
22:14 18,9 12,5 15,4 66,0 0,9 140 - 0,0 0 1.020,5
22:13 18,9 12,5 15,4 66,0 0,8 237 - 0,0 0 1.020,5
22:12 19,0 12,6 15,4 66,0 0,8 132 - 0,0 0 1.020,5
22:11 19,0 12,6 15,4 66,0 1,0 156 - 0,0 0 1.020,5
22:10 19,0 12,6 15,5 66,0 0,9 168 - 0,0 0 1.020,5
22:09 19,0 12,6 15,5 66,0 0,7 215 - 0,0 0 1.020,6
22:08 19,0 12,6 15,5 66,0 0,8 136 - 0,0 0 1.020,6
22:07 19,0 12,6 15,5 66,0 1,3 116 - 0,0 0 1.020,6
22:06 19,0 12,6 15,5 66,0 1,4 97 - 0,0 0 1.020,5
22:05 19,0 12,6 15,5 66,0 1,3 75 - 0,0 0 1.020,5
22:04 19,1 12,7 15,5 66,0 0,6 101 - 0,0 0 1.020,6
22:03 19,0 12,6 15,5 66,0 0,4 301 - 0,0 0 1.020,6
22:02 19,1 12,4 15,4 65,1 0,4 55 - 0,0 0 1.020,6
22:01 19,1 12,4 15,4 65,0 0,7 105 - 0,0 0 1.020,6
22:00 19,1 12,4 15,4 65,0 0,9 175 - 0,0 0 1.020,6
 
21:59 19,1 12,5 15,4 65,0 0,5 121 - 0,0 0 1.020,6
21:58 19,1 12,5 15,4 65,0 0,4 313 - 0,0 0 1.020,6
21:57 19,1 12,5 15,4 65,0 0,8 2 - 0,0 0 1.020,6
21:56 19,1 12,5 15,5 65,0 1,1 66 - 0,0 0 1.020,7
21:55 19,2 12,5 15,5 65,0 1,1 26 - 0,0 0 1.020,7
21:54 19,2 12,5 15,5 65,0 0,6 319 - 0,0 0 1.020,7
21:53 19,2 12,5 15,5 65,0 0,8 208 - 0,0 0 1.020,7
21:52 19,2 12,5 15,5 65,0 0,3 317 - 0,0 0 1.020,7
21:51 19,2 12,5 15,5 65,0 0,7 64 - 0,0 0 1.020,7
21:50 19,2 12,5 15,5 65,0 0,5 327 - 0,0 0 1.020,7
21:49 19,2 12,6 15,5 65,0 0,1 125 - 0,0 0 1.020,8
21:48 19,2 12,6 15,6 65,0 0,4 307 - 0,0 0 1.020,9
21:47 19,3 12,6 15,6 65,0 0,4 355 - 0,0 0 1.020,8
21:46 19,3 12,6 15,6 65,0 0,4 147 - 0,0 0 1.020,8
21:45 19,3 12,6 15,6 65,0 0,8 240 - 0,0 0 1.020,8
21:44 19,3 12,7 15,6 65,0 0,7 295 - 0,0 0 1.020,9
21:43 19,3 12,7 15,6 65,0 0,2 153 - 0,0 0 1.020,9
21:42 19,4 12,7 15,7 65,0 0,3 323 - 0,0 0 1.020,9
21:41 19,4 12,7 15,7 65,0 0,5 32 - 0,0 0 1.020,9
21:40 19,4 12,8 15,7 65,0 0,5 241 - 0,0 0 1.020,9
21:39 19,4 12,8 15,7 65,0 0,8 299 - 0,0 0 1.020,9
21:38 19,4 12,8 15,7 65,0 0,9 242 - 0,0 0 1.021,0
21:37 19,5 12,8 15,8 65,0 0,7 209 - 0,0 0 1.021,0
21:36 19,5 12,8 15,8 65,0 0,6 107 - 0,0 0 1.021,0
21:35 19,5 12,9 15,8 65,0 0,8 99 - 0,0 0 1.021,1
21:34 19,6 12,9 15,8 65,0 0,7 135 - 0,0 0 1.021,1
21:33 19,6 12,9 15,8 65,0 0,8 124 - 0,0 0 1.021,1
21:32 19,6 12,9 15,9 65,0 0,8 134 - 0,0 0 1.021,1
21:31 19,6 12,9 15,8 64,7 0,9 112 - 0,0 0 1.021,1
21:30 19,6 12,7 15,7 64,0 0,5 114 - 0,0 0 1.021,1
21:29 19,7 12,8 15,8 64,0 0,4 350 - 0,0 0 1.021,1
21:28 19,7 13,0 15,9 64,8 0,1 130 - 0,0 0 1.021,1
21:27 19,7 13,0 16,0 65,0 0,3 192 - 0,0 0 1.021,1
21:26 19,7 13,0 16,0 65,0 0,4 301 - 0,0 0 1.021,2
21:25 19,7 13,0 15,9 64,7 0,4 222 - 0,0 0 1.021,2
21:24 19,8 12,9 15,9 64,0 0,2 5 - 0,0 0 1.021,2
21:23 19,8 12,9 15,9 64,0 0,4 171 - 0,0 0 1.021,2
21:22 19,8 12,9 15,9 64,0 0,8 112 - 0,0 0 1.021,2
21:21 19,8 12,9 15,9 64,0 0,6 148 - 0,0 0 1.021,2
21:20 19,8 12,9 15,9 64,0 0,5 226 - 0,0 0 1.021,3
21:19 19,9 13,0 16,0 64,0 0,5 102 - 0,0 0 1.021,3
21:18 19,9 13,0 16,0 64,0 0,8 122 - 0,0 0 1.021,3
21:17 19,9 13,0 16,0 64,0 0,9 126 - 0,0 0 1.021,2
21:16 19,9 13,0 16,0 64,0 0,6 107 - 0,0 0 1.021,2
21:15 19,9 13,0 16,0 63,9 0,4 21 - 0,0 0 1.021,3
21:14 20,0 12,8 15,9 63,0 0,2 27 - 0,0 0 1.021,3
21:13 20,0 12,8 15,9 63,0 0,3 267 - 0,0 0 1.021,3
21:12 20,0 12,8 15,9 63,0 0,5 190 - 0,0 0 1.021,4
21:11 20,0 13,0 16,1 63,7 0,4 122 - 0,0 0 1.021,4
21:10 20,1 13,1 16,1 64,0 0,1 274 - 0,0 0 1.021,5
21:09 20,1 12,9 16,0 63,1 0,3 70 - 0,0 0 1.021,5
21:08 20,1 12,9 16,0 63,0 0,6 84 - 0,0 0 1.021,4
21:07 20,1 12,9 16,0 63,0 0,3 87 - 0,0 0 1.021,4
21:06 20,1 12,9 16,0 63,0 0,3 224 - 0,0 0 1.021,4
21:05 20,1 13,0 16,0 63,0 0,6 100 - 0,0 0 1.021,3
21:04 20,2 13,0 16,1 63,0 0,9 105 - 0,0 0 1.021,3
21:03 20,2 13,0 16,1 63,0 0,9 88 - 0,0 0 1.021,4
21:02 20,2 13,0 16,1 63,0 1,1 48 - 0,0 0 1.021,3
21:01 20,2 13,0 16,1 63,0 1,0 64 - 0,0 0 1.021,3
21:00 20,2 13,1 16,1 63,0 0,4 103 - 0,0 0 1.021,3
 
20:59 20,3 13,1 16,2 63,0 0,4 251 - 0,0 0 1.021,3
20:58 20,3 13,1 16,2 63,0 0,6 138 - 0,0 0 1.021,3
20:57 20,3 13,1 16,2 63,0 0,7 109 - 0,0 0 1.021,3
20:56 20,3 13,1 16,2 63,0 0,6 246 - 0,0 0 1.021,3
20:55 20,3 13,2 16,2 63,0 0,3 145 - 0,0 0 1.021,3
20:54 20,4 13,2 16,2 63,0 0,2 327 - 0,0 0 1.021,3
20:53 20,4 13,2 16,3 62,9 0,3 264 - 0,0 0 1.021,3
20:52 20,4 13,0 16,1 62,0 0,5 144 - 0,0 0 1.021,3
20:51 20,4 13,0 16,2 62,0 0,5 236 - 0,0 0 1.021,3
20:50 20,4 13,0 16,2 62,0 0,3 117 - 0,0 0 1.021,3
20:49 20,5 13,0 16,2 62,0 0,6 73 - 0,0 0 1.021,3
20:48 20,5 13,1 16,2 62,0 0,2 58 - 0,0 0 1.021,3
20:47 20,5 13,1 16,2 62,0 0,4 228 - 0,0 0 1.021,4
20:46 20,5 13,1 16,3 62,0 0,3 326 - 0,0 0 1.021,4
20:45 20,6 13,1 16,3 62,0 0,5 134 - 0,0 0 1.021,4
20:44 20,6 13,1 16,3 62,0 0,9 127 - 0,0 0 1.021,4
20:43 20,6 13,1 16,3 62,0 0,8 190 - 0,0 0 1.021,4
20:42 20,6 13,2 16,3 62,0 0,5 104 - 0,0 0 1.021,4
20:41 20,6 13,2 16,3 62,0 0,5 230 - 0,0 0 1.021,5
20:40 20,7 13,2 16,4 62,0 0,6 110 - 0,0 0 1.021,4
20:39 20,7 13,3 16,4 62,0 0,7 150 - 0,0 0 1.021,5
20:38 20,7 13,3 16,4 62,0 0,6 198 - 0,0 0 1.021,5
20:37 20,7 13,3 16,4 62,0 0,4 167 - 0,0 0 1.021,5
20:36 20,7 13,3 16,4 62,0 0,5 282 - 0,0 0 1.021,4
20:35 20,8 13,3 16,4 62,0 0,8 332 - 0,0 0 1.021,4
20:34 20,8 13,3 16,4 61,9 0,6 32 - 0,0 0 1.021,4
20:33 20,8 13,1 16,3 61,0 0,6 97 - 0,0 0 1.021,4
20:32 20,8 13,1 16,3 61,0 0,7 95 - 0,0 0 1.021,4
20:31 20,8 13,1 16,3 61,0 0,7 91 - 0,0 0 1.021,5
20:30 20,9 13,2 16,4 61,0 0,6 109 - 0,0 0 1.021,5
20:29 20,9 13,2 16,4 61,0 0,7 118 - 0,0 0 1.021,4
20:28 20,9 13,2 16,4 61,0 0,8 101 - 0,0 0 1.021,4
20:27 20,9 13,2 16,4 61,0 1,0 101 - 0,0 0 1.021,3
20:26 20,9 13,2 16,4 61,0 1,1 101 - 0,0 0 1.021,3
20:25 21,0 13,1 16,4 60,4 1,1 101 - 0,0 0 1.021,4
20:24 21,0 13,0 16,3 60,0 0,9 102 - 0,0 0 1.021,4
20:23 21,1 13,1 16,4 60,0 0,9 134 - 0,0 0 1.021,3
20:22 21,1 13,1 16,4 60,0 0,9 111 - 0,0 0 1.021,3
20:21 21,1 13,1 16,4 60,0 0,8 107 - 0,0 0 1.021,3
20:20 21,1 13,2 16,5 60,0 0,7 103 - 0,0 0 1.021,3
20:19 21,2 13,2 16,5 60,0 0,9 104 - 0,0 0 1.021,3
20:18 21,2 13,2 16,5 60,0 1,3 105 - 0,0 0 1.021,3
20:17 21,2 13,2 16,5 60,0 1,5 98 - 0,0 0 1.021,3
20:16 21,2 13,2 16,5 59,8 1,3 96 - 0,0 0 1.021,4
20:15 21,2 13,0 16,4 59,0 1,0 87 - 0,0 0 1.021,4
20:14 21,3 13,0 16,4 59,0 0,7 95 - 0,0 0 1.021,4
20:13 21,3 13,0 16,4 59,0 0,7 138 - 0,0 5 1.021,4
20:12 21,3 12,9 16,3 58,2 0,6 107 - 0,0 5 1.021,5
20:11 21,3 12,8 16,3 58,0 0,7 108 - 0,0 5 1.021,5
20:10 21,3 12,8 16,3 58,0 0,6 95 - 0,0 5 1.021,5
20:09 21,3 12,8 16,3 58,0 0,6 95 - 0,0 6 1.021,6
20:08 21,4 12,9 16,3 58,0 0,5 84 - 0,0 7 1.021,5
20:07 21,4 12,9 16,3 58,0 0,5 93 - 0,0 7 1.021,5
20:06 21,4 12,7 16,2 57,2 0,5 72 - 0,0 7 1.021,6
20:05 21,4 12,7 16,2 57,0 0,6 110 - 0,0 7 1.021,6
20:04 21,5 12,7 16,2 57,0 0,7 88 - 0,0 8 1.021,6
20:03 21,5 12,7 16,2 57,0 0,7 116 - 0,0 9 1.021,6
20:02 21,5 12,7 16,3 57,0 0,6 78 - 0,0 9 1.021,6
20:01 21,5 12,7 16,3 57,0 0,5 111 - 0,0 11 1.021,6
20:00 21,5 12,7 16,3 57,0 0,4 155 - 0,0 11 1.021,6
 
19:59 21,5 12,8 16,3 57,0 0,3 180 - 0,0 11 1.021,6
19:58 21,6 12,6 16,2 56,6 0,4 185 - 0,0 12 1.021,7
19:57 21,6 12,6 16,2 56,4 0,4 189 - 0,0 12 1.021,7
19:56 21,6 12,6 16,2 56,5 0,3 141 - 0,0 11 1.021,7
19:55 21,6 12,5 16,2 56,0 0,4 139 - 0,0 11 1.021,7
19:54 21,6 12,5 16,2 56,0 0,6 142 - 0,0 11 1.021,8
19:53 21,6 12,6 16,2 56,0 0,7 125 - 0,0 11 1.021,8
19:52 21,7 12,6 16,2 56,0 0,9 83 - 0,0 12 1.021,8
19:51 21,7 12,6 16,2 56,0 0,9 102 - 0,0 12 1.021,8
19:50 21,7 12,6 16,2 56,0 0,7 69 - 0,0 12 1.021,8
19:49 21,7 12,6 16,2 56,0 0,6 67 - 0,0 14 1.021,9
19:48 21,7 12,6 16,2 56,0 0,6 128 - 0,0 15 1.021,9
19:47 21,7 12,5 16,2 55,9 0,6 131 - 0,0 16 1.021,8
19:46 21,7 12,3 16,1 55,0 0,6 105 - 0,0 16 1.021,8
19:45 21,7 12,4 16,1 55,0 0,4 103 - 0,0 18 1.021,8
19:44 21,7 12,4 16,1 55,0 0,3 286 - 0,0 18 1.021,9
19:43 21,8 12,4 16,1 55,0 0,6 109 - 0,0 18 1.021,9
19:42 21,8 12,7 16,3 55,9 1,0 109 - 0,0 19 1.021,9
19:41 21,8 12,7 16,3 56,0 0,7 108 - 0,0 19 1.022,0
19:40 21,8 12,6 16,3 55,7 0,5 138 - 0,0 19 1.022,0
19:39 21,8 12,4 16,1 55,0 0,3 166 - 0,0 19 1.022,0
19:38 21,8 12,6 16,3 55,6 0,2 320 - 0,0 21 1.022,0
19:37 21,8 12,7 16,4 56,0 0,5 355 - 0,0 23 1.022,0
19:36 21,8 12,7 16,4 56,0 0,6 294 - 0,0 24 1.022,0
19:35 21,8 12,7 16,3 56,0 0,6 340 - 0,0 26 1.022,0
19:34 21,8 12,7 16,4 56,0 0,6 296 - 0,0 29 1.022,0
19:33 21,8 12,6 16,3 55,5 0,4 5 - 0,0 38 1.021,9
19:32 21,8 12,5 16,2 55,0 0,5 88 - 0,0 45 1.022,0
19:31 21,8 12,5 16,2 55,0 0,2 69 - 0,0 39 1.022,0
19:30 21,8 12,5 16,2 55,0 0,1 286 - 0,0 40 1.022,0
19:29 21,8 12,5 16,2 55,0 0,3 99 - 0,0 52 1.022,0
19:28 21,8 12,5 16,2 55,0 0,9 101 - 0,0 57 1.022,0
19:27 21,8 12,5 16,2 55,0 1,0 130 - 0,0 61 1.022,0
19:26 21,8 12,5 16,2 55,0 0,9 109 - 0,0 62 1.022,0
19:25 21,8 12,5 16,2 55,0 0,8 159 - 0,0 65 1.022,0
19:24 21,8 12,5 16,2 55,0 1,0 87 - 0,0 69 1.022,1
19:23 21,8 12,5 16,2 55,0 1,1 88 - 0,0 71 1.022,1
19:22 21,8 12,5 16,2 55,0 0,6 109 - 0,0 74 1.022,1
19:21 21,8 12,5 16,2 55,0 0,3 252 - 0,0 74 1.022,2
19:20 21,8 12,5 16,2 55,0 0,2 134 - 0,0 73 1.022,2
19:19 21,8 12,5 16,2 55,0 0,5 82 - 0,0 82 1.022,2
19:18 21,8 12,5 16,2 55,0 0,5 71 - 0,0 85 1.022,3
19:17 21,8 12,4 16,1 54,8 0,4 153 - 0,0 70 1.022,3
19:16 21,8 12,2 16,0 54,0 0,4 120 - 0,0 50 1.022,3
19:15 21,8 12,2 16,0 54,0 0,4 142 - 0,0 49 1.022,3
19:14 21,8 12,2 16,0 54,0 0,6 105 - 0,0 51 1.022,3
19:13 21,8 12,2 16,0 54,0 0,7 106 - 0,0 52 1.022,3
19:12 21,8 12,5 16,2 55,0 0,7 98 - 0,0 56 1.022,3
19:11 21,8 12,5 16,2 55,0 0,7 159 - 0,0 58 1.022,3
19:10 21,8 12,5 16,2 55,0 0,8 126 - 0,0 61 1.022,2
19:09 21,8 12,5 16,2 55,0 0,9 103 - 0,0 93 1.022,2
19:08 21,8 12,5 16,2 55,0 0,7 105 - 0,0 128 1.022,2
19:07 21,8 12,5 16,2 55,0 0,4 53 - 0,0 129 1.022,2
19:06 21,8 12,2 16,0 54,1 0,3 172 - 0,0 122 1.022,2
19:05 21,8 12,3 16,1 54,3 0,6 174 - 0,0 131 1.022,2
19:04 21,8 12,3 16,1 54,6 0,6 178 - 0,0 141 1.022,2
19:03 21,8 12,2 16,0 54,0 0,5 138 - 0,0 101 1.022,2
19:02 21,8 12,2 16,0 54,0 0,7 100 - 0,0 113 1.022,2
19:01 21,8 12,2 16,0 54,0 0,9 109 - 0,0 119 1.022,3
19:00 21,8 12,2 16,0 54,0 0,8 120 - 0,0 145 1.022,3
 
18:59 21,8 12,2 16,0 54,0 0,8 170 - 0,0 129 1.022,3
18:58 21,8 12,2 16,0 54,0 0,9 99 - 0,0 95 1.022,3
18:57 21,8 12,2 16,0 54,0 1,1 117 - 0,0 78 1.022,2
18:56 21,9 12,2 16,0 54,0 1,1 120 - 0,0 73 1.022,2
18:55 21,9 12,2 16,1 54,0 1,1 147 - 0,0 71 1.022,2
18:54 21,9 12,2 16,1 54,0 1,2 107 - 0,0 78 1.022,2
18:53 21,9 12,1 16,0 53,7 1,4 101 - 0,0 98 1.022,2
18:52 21,9 11,9 15,9 53,0 1,2 107 - 0,0 127 1.022,2
18:51 21,9 12,2 16,0 53,7 1,1 153 - 0,0 121 1.022,2
18:50 21,9 12,3 16,1 54,0 1,1 144 - 0,0 85 1.022,2
18:49 21,9 12,3 16,1 54,0 1,1 141 - 0,0 102 1.022,3
18:48 21,9 12,0 15,9 53,0 1,3 158 - 0,0 118 1.022,2
18:47 21,9 12,0 15,9 53,0 1,2 131 - 0,0 96 1.022,3
18:46 21,9 12,0 15,9 53,0 1,3 117 - 0,0 88 1.022,3
18:45 21,9 12,0 15,9 53,0 0,7 81 - 0,0 91 1.022,2
18:44 22,0 12,0 15,9 53,0 0,4 290 - 0,0 107 1.022,2
18:43 22,0 12,0 16,0 53,0 0,3 90 - 0,0 115 1.022,3
18:42 22,0 12,0 16,0 53,0 0,7 172 - 0,0 108 1.022,3
18:41 22,0 12,0 16,0 53,0 0,3 34 - 0,0 160 1.022,4
18:40 22,0 12,0 16,0 53,0 0,4 197 - 0,0 151 1.022,4
18:39 22,0 12,0 16,0 53,0 1,0 184 - 0,0 132 1.022,3
18:38 22,0 12,0 16,0 53,0 1,1 132 - 0,0 151 1.022,3
18:37 22,0 12,0 16,0 53,0 1,2 112 - 0,0 101 1.022,4
18:36 22,0 12,0 16,0 53,0 1,1 136 - 0,0 128 1.022,4
18:35 22,0 12,1 16,0 53,0 1,1 101 - 0,0 177 1.022,4
18:34 22,0 12,1 16,0 53,0 1,1 120 - 0,0 109 1.022,4
18:33 22,1 12,1 16,0 53,0 1,2 103 - 0,0 171 1.022,4
18:32 22,0 12,1 16,0 53,0 1,1 116 - 0,0 196 1.022,4
18:31 22,1 12,1 16,0 53,0 1,0 162 - 0,0 128 1.022,4
18:30 22,1 12,1 16,0 53,0 0,9 151 - 0,0 128 1.022,5
18:29 22,1 12,1 16,0 53,0 1,0 94 - 0,0 97 1.022,5
18:28 22,1 12,1 16,1 53,0 1,2 101 - 0,0 84 1.022,6
18:27 22,1 12,2 16,1 53,0 0,9 99 - 0,0 83 1.022,6
18:26 22,1 12,1 16,1 53,0 0,8 192 - 0,0 122 1.022,5
18:25 22,2 12,2 16,1 53,0 0,9 99 - 0,0 193 1.022,5
18:24 22,2 12,2 16,1 53,0 0,9 127 - 0,0 142 1.022,5
18:23 22,2 12,2 16,1 53,0 0,8 178 - 0,0 93 1.022,5
18:22 22,2 12,2 16,1 53,0 0,6 150 - 0,0 95 1.022,5
18:21 22,2 12,0 16,0 52,3 0,8 89 - 0,0 95 1.022,6
18:20 22,2 12,0 16,0 52,0 1,1 145 - 0,0 94 1.022,6
18:19 22,3 12,3 16,2 53,0 1,1 128 - 0,0 96 1.022,6
18:18 22,3 12,3 16,2 53,0 1,0 167 - 0,0 157 1.022,6
18:17 22,3 12,3 16,2 53,0 0,8 116 - 0,0 188 1.022,7
18:16 22,3 12,3 16,2 53,0 0,9 142 - 0,0 124 1.022,7
18:15 22,3 12,3 16,2 53,0 1,1 145 - 0,0 234 1.022,7
18:14 22,3 12,3 16,2 53,0 1,3 98 - 0,0 234 1.022,8
18:13 22,3 12,3 16,2 53,0 1,3 113 - 0,0 189 1.022,8
18:12 22,3 12,4 16,3 53,0 0,6 57 - 0,0 137 1.022,8
18:11 22,4 12,4 16,3 53,0 0,4 216 - 0,0 130 1.022,8
18:10 22,4 12,1 16,1 52,2 0,4 172 - 0,0 86 1.022,8
18:09 22,4 12,1 16,1 52,0 0,6 44 - 0,0 76 1.022,8
18:08 22,4 12,1 16,1 52,0 0,9 105 - 0,0 71 1.022,8
18:07 22,4 12,1 16,1 52,0 1,2 142 - 0,0 69 1.022,8
18:06 22,4 12,1 16,2 52,0 1,4 147 - 0,0 203 1.022,9
18:05 22,4 12,1 16,2 52,0 1,4 188 - 0,0 260 1.022,9
18:04 22,4 12,2 16,2 52,0 1,2 207 - 0,0 254 1.022,9
18:03 22,4 12,2 16,2 52,0 0,9 116 - 0,0 153 1.022,9
18:02 22,4 12,2 16,2 52,0 0,6 222 - 0,0 115 1.022,9
18:01 22,4 12,2 16,2 52,0 0,6 79 - 0,0 81 1.022,9
18:00 22,4 12,2 16,2 52,0 1,0 182 - 0,0 75 1.022,9
 
17:59 22,4 12,0 16,1 51,5 1,2 192 - 0,0 161 1.022,9
17:58 22,4 11,9 16,0 51,0 1,1 93 - 0,0 190 1.022,8
17:57 22,4 12,1 16,1 51,8 1,2 62 - 0,0 264 1.022,8
17:56 22,4 12,4 16,3 53,0 1,1 174 - 0,0 272 1.022,7
17:55 22,4 12,5 16,3 53,0 1,3 206 - 0,0 271 1.022,7
17:54 22,4 12,6 16,4 53,4 1,0 101 - 0,0 272 1.022,8
17:53 22,4 12,7 16,5 54,0 1,1 114 - 0,0 274 1.022,8
17:52 22,4 12,7 16,5 54,0 1,0 180 - 0,0 271 1.022,8
17:51 22,4 12,7 16,5 54,0 1,2 190 - 0,0 271 1.022,8
17:50 22,4 12,6 16,4 53,9 1,1 132 - 0,0 276 1.022,8
17:49 22,4 12,4 16,3 53,0 1,1 211 - 0,0 281 1.022,8
17:48 22,3 12,4 16,3 53,0 1,3 136 - 0,0 283 1.022,8
17:47 22,3 12,6 16,4 53,8 1,6 218 - 0,0 280 1.022,8
17:46 22,3 12,6 16,4 54,0 1,6 215 - 0,0 287 1.022,8
17:45 22,3 12,4 16,2 53,2 1,2 195 - 0,0 289 1.022,8
17:44 22,3 12,3 16,2 53,2 1,2 173 - 0,0 292 1.022,8
17:43 22,3 12,6 16,4 54,0 1,5 136 - 0,0 296 1.022,8
17:42 22,3 12,7 16,5 54,5 1,1 143 - 0,0 299 1.022,8
17:41 22,2 12,8 16,5 55,0 1,1 268 - 0,0 301 1.022,8
17:40 22,2 12,8 16,5 55,0 1,5 233 - 0,0 305 1.022,7
17:39 22,2 12,8 16,5 55,0 1,5 220 - 0,0 309 1.022,7
17:38 22,2 12,8 16,5 55,0 0,6 262 - 0,0 313 1.022,8
17:37 22,2 12,8 16,5 55,0 0,2 85 - 0,0 317 1.022,8
17:36 22,2 12,8 16,5 55,0 0,3 242 - 0,0 322 1.022,7
17:35 22,2 12,8 16,5 55,0 0,6 72 - 0,0 330 1.022,8
17:34 22,1 12,8 16,5 55,0 1,3 102 - 0,0 340 1.022,8
17:33 22,1 12,7 16,4 55,0 1,3 91 - 0,0 353 1.022,7
17:32 22,1 12,7 16,4 55,0 1,2 95 - 0,0 359 1.022,7
17:31 22,1 12,7 16,4 55,0 1,3 174 - 0,0 371 1.022,7
17:30 22,1 12,7 16,4 55,0 1,4 197 - 0,0 386 1.022,7
17:29 22,1 12,7 16,4 54,9 1,4 240 - 0,0 393 1.022,8
17:28 22,1 12,5 16,3 54,2 1,5 183 - 0,0 394 1.022,7
17:27 22,1 12,4 16,2 54,0 1,7 162 - 0,0 332 1.022,8
17:26 22,1 12,4 16,2 54,0 1,8 236 - 0,0 232 1.022,8
17:25 22,1 12,4 16,2 54,0 1,3 159 - 0,0 224 1.022,8
17:24 22,1 12,4 16,2 54,0 1,4 78 - 0,0 187 1.022,8
17:23 22,1 12,4 16,2 54,0 1,4 74 - 0,0 165 1.022,8
17:22 22,1 12,4 16,2 54,0 1,5 78 - 0,0 196 1.022,8
17:21 22,1 12,7 16,4 55,0 1,7 101 - 0,0 265 1.022,8
17:20 22,1 12,6 16,3 54,8 1,5 82 - 0,0 265 1.022,7
17:19 22,1 12,4 16,2 54,0 0,6 156 - 0,0 307 1.022,7
17:18 22,1 12,5 16,3 54,5 1,0 264 - 0,0 374 1.022,8
17:17 22,1 12,5 16,3 54,4 1,0 158 - 0,0 315 1.022,8
17:16 22,1 12,4 16,2 54,0 0,8 176 - 0,0 223 1.022,8
17:15 22,0 12,4 16,2 54,0 0,8 39 - 0,0 213 1.022,8
17:14 22,0 12,3 16,2 54,0 1,2 97 - 0,0 355 1.022,8
17:13 22,0 12,4 16,2 54,4 0,9 128 - 0,0 450 1.022,8
17:12 22,0 12,6 16,3 55,0 0,9 355 - 0,0 296 1.022,8
17:11 22,0 12,4 16,2 54,3 0,7 73 - 0,0 284 1.022,8
17:10 22,0 12,3 16,2 54,0 1,0 171 - 0,0 278 1.022,8
17:09 22,0 12,3 16,2 54,0 1,0 97 - 0,0 211 1.022,8
17:08 22,0 12,3 16,2 54,0 1,4 65 - 0,0 212 1.022,8
17:07 22,0 12,3 16,2 54,0 1,4 111 - 0,0 247 1.022,8
17:06 22,0 12,2 16,1 53,5 1,5 36 - 0,0 258 1.022,8
17:05 22,0 12,0 16,0 53,0 1,0 89 - 0,0 247 1.022,8
17:04 22,0 12,0 16,0 53,0 1,3 202 - 0,0 204 1.022,8
17:03 22,0 12,1 16,0 53,2 1,8 140 - 0,0 210 1.022,8
17:02 22,0 12,3 16,2 54,0 1,8 137 - 0,0 218 1.022,8
17:01 22,0 12,3 16,2 54,0 1,3 215 - 0,0 226 1.022,8
17:00 22,0 12,2 16,0 53,4 1,0 96 - 0,0 238 1.022,8
 
16:59 22,0 12,0 16,0 53,0 1,5 110 - 0,0 265 1.022,8
16:58 22,0 12,0 16,0 53,0 0,8 81 - 0,0 265 1.022,8
16:57 22,0 12,0 16,0 53,0 1,0 214 - 0,0 294 1.022,8
16:56 22,0 12,0 16,0 53,0 1,1 262 - 0,0 280 1.022,8
16:55 22,0 12,0 16,0 53,0 0,7 99 - 0,0 257 1.022,8
16:54 22,0 12,2 16,1 53,6 1,5 114 - 0,0 256 1.022,8
16:53 22,0 12,4 16,2 54,0 1,4 196 - 0,0 238 1.022,8
16:52 22,0 12,4 16,2 54,0 1,0 81 - 0,0 211 1.022,8
16:51 22,1 12,4 16,2 54,0 2,2 24 - 0,0 188 1.022,8
16:50 22,1 12,5 16,3 54,4 2,5 79 - 0,0 181 1.022,8
16:49 22,0 12,7 16,4 55,0 2,3 80 - 0,0 187 1.022,8
16:48 22,0 12,8 16,5 55,7 1,4 63 - 0,0 187 1.022,8
16:47 22,0 12,7 16,4 55,2 0,9 45 - 0,0 174 1.022,9
16:46 22,0 12,6 16,3 55,0 0,9 22 - 0,0 192 1.023,0
16:45 22,0 12,6 16,3 55,0 0,5 43 - 0,0 288 1.023,0
16:44 22,0 12,4 16,2 54,5 0,5 168 - 0,0 388 1.023,0
16:43 21,9 12,3 16,1 54,0 1,0 156 - 0,0 536 1.023,0
16:42 21,9 12,2 16,1 54,0 1,0 125 - 0,0 555 1.023,0
16:41 21,9 12,0 15,9 53,2 0,9 51 - 0,0 459 1.022,9
16:40 21,9 11,9 15,9 53,0 0,7 178 - 0,0 258 1.022,9
16:39 21,9 12,0 15,9 53,3 1,2 241 - 0,0 269 1.023,0
16:38 21,8 12,3 16,1 54,4 1,5 136 - 0,0 417 1.023,0
16:37 21,8 12,5 16,2 55,0 2,0 161 - 0,0 464 1.023,1
16:36 21,8 12,4 16,1 55,0 1,6 114 - 0,0 471 1.023,1
16:35 21,8 12,4 16,1 55,0 1,2 186 - 0,0 515 1.023,1
16:34 21,7 12,4 16,1 55,0 1,0 213 - 0,0 527 1.023,2
16:33 21,7 12,4 16,1 55,3 0,9 103 - 0,0 481 1.023,2
16:32 21,7 12,6 16,2 56,0 0,5 217 - 0,0 446 1.023,2
16:31 21,7 12,6 16,2 56,0 0,7 46 - 0,0 446 1.023,2
16:30 21,6 12,6 16,2 56,0 1,3 80 - 0,0 437 1.023,2
16:29 21,6 12,5 16,2 56,0 1,0 84 - 0,0 401 1.023,2
16:28 21,6 12,5 16,1 56,0 1,1 41 - 0,0 401 1.023,2
16:27 21,5 12,5 16,1 56,0 1,0 3 - 0,0 451 1.023,3
16:26 21,5 12,4 16,1 56,0 0,7 116 - 0,0 485 1.023,3
16:25 21,5 12,4 16,1 56,0 0,6 147 - 0,0 370 1.023,4
16:24 21,5 12,4 16,1 56,0 0,7 271 - 0,0 343 1.023,3
16:23 21,4 12,6 16,2 56,9 0,5 142 - 0,0 291 1.023,3
16:22 21,4 12,9 16,4 58,0 1,3 64 - 0,0 368 1.023,3
16:21 21,4 12,9 16,4 58,0 1,3 155 - 0,0 434 1.023,3
16:20 21,4 12,7 16,2 57,6 1,2 147 - 0,0 434 1.023,4
16:19 21,4 12,6 16,1 57,0 1,1 104 - 0,0 432 1.023,4
16:18 21,3 12,3 16,0 56,3 0,7 113 - 0,0 708 1.023,4
16:17 21,3 12,2 15,9 56,0 0,7 236 - 0,0 630 1.023,4
16:16 21,3 11,9 15,7 55,0 0,6 138 - 0,0 485 1.023,5
16:15 21,3 11,9 15,7 55,0 1,1 56 - 0,0 518 1.023,5
16:14 21,3 12,0 15,7 55,0 1,3 99 - 0,0 328 1.023,5
16:13 21,3 11,9 15,7 55,0 1,3 86 - 0,0 271 1.023,5
16:12 21,3 12,0 15,7 55,0 0,8 170 - 0,0 220 1.023,5
16:11 21,3 12,0 15,7 55,1 0,7 261 - 0,0 198 1.023,5
16:10 21,3 12,3 15,9 56,0 0,7 93 - 0,0 184 1.023,6
16:09 21,3 12,3 15,9 56,0 1,3 148 - 0,0 176 1.023,6
16:08 21,3 12,3 15,9 56,0 1,3 163 - 0,0 170 1.023,6
16:07 21,3 12,3 15,9 56,0 0,9 173 - 0,0 165 1.023,6
16:06 21,3 12,3 15,9 56,0 0,6 181 - 0,0 163 1.023,5
16:05 21,3 12,3 15,9 56,0 0,6 173 - 0,0 161 1.023,5
16:04 21,3 12,3 15,9 56,0 0,6 125 - 0,0 159 1.023,5
16:03 21,3 12,3 15,9 56,0 0,8 91 - 0,0 158 1.023,5
16:02 21,3 12,3 15,9 56,0 0,9 145 - 0,0 158 1.023,5
16:01 21,3 12,1 15,8 55,4 1,1 163 - 0,0 160 1.023,5
16:00 21,3 12,0 15,8 55,0 1,2 145 - 0,0 165 1.023,4
 
15:59 21,4 12,0 15,8 55,0 1,3 140 - 0,0 171 1.023,4
15:58 21,3 12,0 15,8 55,0 1,3 113 - 0,0 173 1.023,5
15:57 21,4 12,0 15,8 55,0 1,6 104 - 0,0 178 1.023,5
15:56 21,4 12,0 15,8 55,0 1,8 106 - 0,0 184 1.023,5
15:55 21,4 12,0 15,8 55,0 1,6 69 - 0,0 190 1.023,5
15:54 21,4 12,0 15,8 55,0 1,3 134 - 0,0 194 1.023,5
15:53 21,4 12,0 15,8 55,0 0,6 84 - 0,0 198 1.023,5
15:52 21,4 11,9 15,7 54,6 0,1 297 - 0,0 201 1.023,5
15:51 21,4 11,8 15,6 54,0 0,6 190 - 0,0 202 1.023,5
15:50 21,4 11,8 15,7 54,0 0,7 184 - 0,0 199 1.023,6
15:49 21,4 11,8 15,7 54,0 0,7 76 - 0,0 192 1.023,7
15:48 21,4 11,8 15,7 54,0 0,9 171 - 0,0 182 1.023,7
15:47 21,4 11,8 15,7 54,0 0,5 83 - 0,0 174 1.023,6
15:46 21,5 11,8 15,7 54,0 0,4 269 - 0,0 173 1.023,6
15:45 21,5 11,7 15,6 53,4 0,8 141 - 0,0 171 1.023,6
15:44 21,5 11,6 15,6 53,0 1,2 168 - 0,0 174 1.023,7
15:43 21,5 11,6 15,6 53,0 0,8 101 - 0,0 179 1.023,7
15:42 21,5 11,6 15,6 53,0 0,6 242 - 0,0 183 1.023,7
15:41 21,6 11,6 15,6 53,0 0,9 152 - 0,0 192 1.023,7
15:40 21,6 11,6 15,6 53,0 1,3 128 - 0,0 195 1.023,8
15:39 21,6 11,6 15,6 53,0 1,3 111 - 0,0 197 1.023,9
15:38 21,6 11,7 15,6 53,0 1,5 91 - 0,0 197 1.023,9
15:37 21,6 11,7 15,6 53,0 1,8 109 - 0,0 200 1.023,9
15:36 21,6 11,7 15,7 53,0 1,7 126 - 0,0 204 1.024,0
15:35 21,6 11,7 15,7 52,9 1,3 51 - 0,0 210 1.024,0
15:34 21,7 11,4 15,5 52,0 0,8 151 - 0,0 218 1.024,0
15:33 21,7 11,4 15,5 52,0 0,6 12 - 0,0 228 1.024,0
15:32 21,7 11,4 15,5 52,0 0,9 160 - 0,0 240 1.024,1
15:31 21,7 11,7 15,7 52,8 1,5 146 - 0,0 252 1.024,1
15:30 21,7 11,8 15,7 53,0 1,5 84 - 0,0 261 1.024,1
15:29 21,7 11,8 15,7 53,0 1,3 130 - 0,0 274 1.024,1
15:28 21,7 11,8 15,7 53,0 1,3 157 - 0,0 274 1.024,2
15:27 21,7 11,6 15,7 52,5 1,3 136 - 0,0 260 1.024,2
15:26 21,7 11,5 15,6 52,0 1,1 82 - 0,0 258 1.024,2
15:25 21,7 11,5 15,6 52,0 0,4 189 - 0,0 258 1.024,2
15:24 21,7 11,5 15,6 52,0 0,2 355 - 0,0 260 1.024,3
15:23 21,8 11,2 15,4 51,0 0,4 157 - 0,0 252 1.024,3
15:22 21,8 11,3 15,5 51,4 0,8 285 - 0,0 241 1.024,3
15:21 21,8 11,5 15,6 52,0 1,0 174 - 0,0 267 1.024,4
15:20 21,8 11,6 15,6 52,0 0,8 155 - 0,0 272 1.024,3
15:19 21,8 11,6 15,7 52,0 0,9 27 - 0,0 271 1.024,4
15:18 21,8 11,3 15,5 51,1 1,4 153 - 0,0 260 1.024,4
15:17 21,8 11,4 15,5 51,3 1,8 91 - 0,0 240 1.024,3
15:16 21,8 11,6 15,7 52,0 1,6 171 - 0,0 234 1.024,3
15:15 21,8 11,6 15,7 52,0 2,1 170 - 0,0 209 1.024,3
15:14 21,8 11,6 15,7 52,0 2,1 195 - 0,0 192 1.024,3
15:13 21,8 11,6 15,7 52,0 1,1 168 - 0,0 327 1.024,4
15:12 21,8 11,6 15,7 52,0 1,0 37 - 0,0 668 1.024,4
15:11 21,8 11,6 15,6 52,0 1,6 116 - 0,0 668 1.024,3
15:10 21,8 11,6 15,6 52,0 1,6 107 - 0,0 668 1.024,4
15:09 21,8 11,5 15,6 52,0 1,8 211 - 0,0 683 1.024,4
15:08 21,8 11,5 15,6 52,0 1,9 135 - 0,0 636 1.024,3
15:07 21,8 11,5 15,6 52,0 1,7 131 - 0,0 378 1.024,4
15:06 21,8 11,6 15,6 52,2 1,7 223 - 0,0 378 1.024,4
15:05 21,8 11,9 15,8 53,3 1,9 192 - 0,0 378 1.024,3
15:04 21,8 12,0 15,9 53,4 1,7 128 - 0,0 378 1.024,4
15:03 21,7 11,8 15,8 53,0 1,2 214 - 0,0 418 1.024,4
15:02 21,7 11,8 15,7 53,0 1,2 174 - 0,0 491 1.024,4
15:01 21,7 11,8 15,8 53,0 1,2 191 - 0,0 485 1.024,4
15:00 21,7 12,0 15,9 53,8 1,2 119 - 0,0 538 1.024,4
 
14:59 21,7 11,8 15,7 53,0 1,5 99 - 0,0 577 1.024,4
14:58 21,7 11,8 15,7 53,0 1,5 76 - 0,0 518 1.024,4
14:57 21,7 11,8 15,7 53,0 1,1 118 - 0,0 493 1.024,4
14:56 21,7 11,8 15,7 53,0 0,8 188 - 0,0 412 1.024,4
14:55 21,7 11,8 15,7 53,0 1,0 294 - 0,0 443 1.024,4
14:54 21,7 11,8 15,7 53,0 1,6 196 - 0,0 622 1.024,5
14:53 21,7 11,8 15,8 53,0 2,4 186 - 0,0 622 1.024,5
14:52 21,7 11,6 15,7 52,6 2,3 205 - 0,0 351 1.024,5
14:51 21,7 11,5 15,6 52,0 1,6 180 - 0,0 285 1.024,5
14:50 21,7 11,5 15,6 52,0 1,7 122 - 0,0 330 1.024,4
14:49 21,7 11,5 15,6 52,0 1,8 195 - 0,0 413 1.024,4
14:48 21,7 11,5 15,6 52,0 2,1 99 - 0,0 413 1.024,4
14:47 21,7 11,5 15,5 52,0 2,6 82 - 0,0 413 1.024,4
14:46 21,7 11,4 15,5 52,0 1,6 83 - 0,0 413 1.024,5
14:45 21,7 11,4 15,5 52,0 1,9 181 - 0,0 406 1.024,5
14:44 21,7 11,7 15,7 52,9 2,1 158 - 0,0 360 1.024,4
14:43 21,7 11,7 15,7 53,0 1,7 82 - 0,0 464 1.024,5
14:42 21,7 11,8 15,7 53,2 1,8 205 - 0,0 568 1.024,5
14:41 21,6 12,0 15,9 54,0 1,7 185 - 0,0 568 1.024,5
14:40 21,6 12,0 15,8 54,0 0,7 314 - 0,0 644 1.024,5
14:39 21,6 11,9 15,8 54,0 0,8 143 - 0,0 677 1.024,6
14:38 21,6 11,9 15,8 54,0 0,9 97 - 0,0 751 1.024,5
14:37 21,6 11,9 15,8 54,0 0,9 249 - 0,0 751 1.024,5
14:36 21,5 11,9 15,8 54,0 1,4 173 - 0,0 751 1.024,5
14:35 21,5 11,9 15,7 54,0 1,9 120 - 0,0 687 1.024,5
14:34 21,5 11,9 15,7 54,0 1,9 108 - 0,0 622 1.024,6
14:33 21,5 11,8 15,7 54,0 1,7 169 - 0,0 402 1.024,6
14:32 21,4 11,8 15,7 54,0 1,6 157 - 0,0 395 1.024,6
14:31 21,4 11,8 15,7 54,0 1,6 97 - 0,0 411 1.024,6
14:30 21,4 11,8 15,7 54,0 1,8 194 - 0,0 590 1.024,6
14:29 21,4 11,7 15,6 54,0 1,9 170 - 0,0 705 1.024,6
14:28 21,3 11,7 15,6 54,0 1,5 120 - 0,0 710 1.024,6
14:27 21,3 11,7 15,6 54,0 1,7 84 - 0,0 641 1.024,6
14:26 21,3 11,7 15,6 54,0 1,6 93 - 0,0 681 1.024,5
14:25 21,3 11,7 15,6 54,0 1,6 116 - 0,0 637 1.024,5
14:24 21,3 11,7 15,5 54,0 1,3 93 - 0,0 639 1.024,6
14:23 21,2 11,6 15,5 54,0 1,3 178 - 0,0 641 1.024,6
14:22 21,2 11,6 15,5 54,0 1,8 189 - 0,0 633 1.024,5
14:21 21,2 11,6 15,5 54,0 2,2 184 - 0,0 559 1.024,4
14:20 21,2 11,6 15,5 54,0 2,8 216 - 0,0 595 1.024,4
14:19 21,2 11,8 15,6 55,0 2,4 187 - 0,0 599 1.024,5
14:18 21,1 11,8 15,6 55,0 2,0 124 - 0,0 605 1.024,5
14:17 21,1 11,8 15,6 55,0 2,3 96 - 0,0 571 1.024,5
14:16 21,1 11,6 15,4 54,4 2,6 148 - 0,0 612 1.024,5
14:15 21,1 11,7 15,5 54,8 2,3 120 - 0,0 608 1.024,5
14:14 21,0 11,7 15,5 55,0 2,3 217 - 0,0 580 1.024,5
14:13 21,0 11,7 15,5 55,0 3,0 208 - 0,0 574 1.024,5
14:12 21,0 11,7 15,5 55,3 3,0 190 - 0,0 594 1.024,6
14:11 20,9 12,0 15,7 56,5 2,5 191 - 0,0 612 1.024,6
14:10 20,9 12,2 15,7 57,0 2,0 239 - 0,0 637 1.024,7
14:09 20,9 12,1 15,7 57,0 1,4 214 - 0,0 644 1.024,6
14:08 20,8 11,8 15,5 56,1 1,4 148 - 0,0 647 1.024,6
14:07 20,8 11,7 15,5 55,8 1,6 195 - 0,0 650 1.024,6
14:06 20,8 11,6 15,4 55,4 1,7 180 - 0,0 652 1.024,6
14:05 20,8 11,7 15,5 56,0 2,0 128 - 0,0 652 1.024,7
14:04 20,7 11,9 15,5 56,7 2,4 136 - 0,0 641 1.024,6
14:03 20,7 11,9 15,6 57,0 2,3 126 - 0,0 630 1.024,6
14:02 20,7 11,9 15,6 57,1 2,2 143 - 0,0 645 1.024,6
14:01 20,6 12,1 15,7 58,0 1,6 114 - 0,0 612 1.024,7
14:00 20,6 12,1 15,6 58,0 1,5 200 - 0,0 530 1.024,7
 
13:59 20,6 12,1 15,6 58,0 1,8 139 - 0,0 488 1.024,6
13:58 20,6 12,3 15,7 58,7 1,7 186 - 0,0 549 1.024,7
13:57 20,5 12,3 15,8 59,0 1,5 139 - 0,0 612 1.024,7
13:56 20,5 12,3 15,7 59,0 0,4 163 - 0,0 606 1.024,7
13:55 20,4 12,1 15,6 58,6 0,7 345 - 0,0 606 1.024,7
13:54 20,4 12,0 15,5 58,0 1,2 88 - 0,0 606 1.024,8
13:53 20,4 11,9 15,5 58,0 1,6 132 - 0,0 598 1.024,8
13:52 20,4 12,1 15,6 58,7 1,1 39 - 0,0 593 1.024,7
13:51 20,4 12,4 15,7 59,8 1,0 175 - 0,0 595 1.024,8
13:50 20,3 12,2 15,6 59,1 1,2 64 - 0,0 597 1.024,8
13:49 20,3 12,1 15,5 59,0 1,0 179 - 0,0 594 1.024,8
13:48 20,3 12,1 15,5 59,0 1,8 158 - 0,0 596 1.024,8
13:47 20,2 12,2 15,6 59,6 1,9 155 - 0,0 534 1.024,8
13:46 20,2 12,3 15,6 60,0 1,9 72 - 0,0 539 1.024,9
13:45 20,2 12,3 15,6 60,0 1,9 61 - 0,0 608 1.024,9
13:44 20,2 12,2 15,6 60,0 0,7 33 - 0,0 612 1.024,9
13:43 20,1 12,2 15,5 60,0 0,3 247 - 0,0 602 1.024,9
13:42 20,1 12,2 15,5 60,0 0,8 70 - 0,0 625 1.024,9
13:41 20,1 12,2 15,5 60,0 1,3 124 - 0,0 643 1.024,9
13:40 20,1 12,1 15,5 60,0 1,0 197 - 0,0 627 1.025,0
13:39 20,0 12,1 15,5 60,0 1,4 272 - 0,0 648 1.025,0
13:38 20,0 12,1 15,5 60,0 0,3 236 - 0,0 648 1.024,9
13:37 20,0 12,1 15,4 60,0 1,3 70 - 0,0 600 1.024,9
13:36 20,0 12,1 15,4 60,0 1,1 135 - 0,0 582 1.025,0
13:35 19,9 12,0 15,4 60,0 0,9 251 - 0,0 585 1.025,0
13:34 20,0 12,0 15,4 60,0 1,1 102 - 0,0 521 1.025,0
13:33 20,0 12,1 15,4 60,0 1,3 204 - 0,0 244 1.025,1
13:32 20,0 12,1 15,4 60,0 1,5 101 - 0,0 173 1.025,1
13:31 20,0 12,1 15,4 60,0 1,8 114 - 0,0 102 1.025,1
13:30 20,0 12,1 15,5 60,0 2,0 178 - 0,0 102 1.025,1
13:29 20,0 12,1 15,5 60,0 1,7 100 - 0,0 102 1.025,1
13:28 20,0 12,1 15,5 60,0 1,9 55 - 0,0 102 1.025,1
13:27 20,1 12,1 15,5 60,0 1,7 115 - 0,0 102 1.025,1
13:26 20,1 12,2 15,5 60,0 1,7 113 - 0,0 102 1.025,1
13:25 20,1 12,2 15,5 60,0 1,0 65 - 0,0 94 1.025,1
13:24 20,1 12,2 15,5 60,0 1,0 206 - 0,0 91 1.025,0
13:23 20,1 12,2 15,5 60,0 1,7 143 - 0,0 92 1.025,1
13:22 20,1 12,2 15,5 60,0 2,2 98 - 0,0 104 1.025,1
13:21 20,1 12,2 15,5 60,0 2,0 147 - 0,0 179 1.025,1
13:20 20,1 12,2 15,5 60,2 1,7 162 - 0,0 267 1.025,1
13:19 20,0 12,3 15,6 60,7 1,3 116 - 0,0 282 1.025,1
13:18 20,0 12,2 15,5 60,5 1,7 176 - 0,0 571 1.025,1
13:17 20,0 12,3 15,6 61,0 1,5 180 - 0,0 628 1.025,1
13:16 20,0 12,3 15,6 61,0 1,3 61 - 0,0 666 1.025,1
13:15 19,9 12,3 15,6 61,0 1,5 134 - 0,0 666 1.025,1
13:14 19,9 12,2 15,5 61,0 1,6 101 - 0,0 666 1.025,1
13:13 19,9 12,2 15,5 61,0 1,6 198 - 0,0 690 1.025,0
13:12 19,8 12,3 15,6 61,6 2,1 252 - 0,0 701 1.025,0
13:11 19,8 12,4 15,6 62,0 1,4 183 - 0,0 621 1.025,1
13:10 19,8 12,4 15,6 62,0 1,5 128 - 0,0 617 1.025,1
13:09 19,8 12,4 15,6 62,0 1,8 109 - 0,0 617 1.025,1
13:08 19,8 12,4 15,6 62,0 2,0 155 - 0,0 617 1.025,1
13:07 19,7 12,3 15,5 62,0 2,4 163 - 0,0 617 1.025,1
13:06 19,7 12,4 15,6 62,6 2,1 163 - 0,0 694 1.025,1
13:05 19,7 12,6 15,7 63,0 2,0 97 - 0,0 652 1.025,2
13:04 19,7 12,5 15,6 63,0 1,6 154 - 0,0 652 1.025,2
13:03 19,7 12,5 15,6 63,0 1,2 57 - 0,0 504 1.025,2
13:02 19,7 12,5 15,6 63,0 1,1 177 - 0,0 355 1.025,2
13:01 19,7 12,5 15,6 63,0 1,3 176 - 0,0 355 1.025,2
13:00 19,7 12,7 15,7 63,6 1,5 80 - 0,0 265 1.025,2
 
12:59 19,7 12,9 15,9 64,7 2,0 151 - 0,0 257 1.025,2
12:58 19,7 13,2 16,1 65,9 1,9 96 - 0,0 250 1.025,1
12:57 19,6 13,4 16,2 66,8 1,2 189 - 0,0 391 1.025,2
12:56 19,6 13,1 16,0 66,0 0,5 57 - 0,0 545 1.025,3
12:55 19,6 13,2 16,1 66,5 0,5 201 - 0,0 590 1.025,4
12:54 19,5 13,3 16,1 67,0 1,2 163 - 0,0 527 1.025,4
12:53 19,4 13,1 15,9 66,3 1,6 216 - 0,0 388 1.025,4
12:52 19,4 13,0 15,9 66,0 1,6 165 - 0,0 472 1.025,4
12:51 19,3 12,9 15,8 66,0 1,7 160 - 0,0 629 1.025,4
12:50 19,3 12,9 15,8 66,0 1,7 178 - 0,0 629 1.025,3
12:49 19,3 12,9 15,7 66,0 1,3 120 - 0,0 625 1.025,4
12:48 19,3 12,9 15,7 66,0 1,3 237 - 0,0 607 1.025,4
12:47 19,3 12,8 15,7 66,0 1,6 184 - 0,0 397 1.025,4
12:46 19,2 12,8 15,7 66,1 1,5 178 - 0,0 451 1.025,4
12:45 19,2 13,0 15,8 67,0 1,4 195 - 0,0 533 1.025,5
12:44 19,2 13,0 15,8 67,0 1,3 196 - 0,0 533 1.025,4
12:43 19,2 13,0 15,8 67,0 0,9 186 - 0,0 377 1.025,4
12:42 19,2 13,0 15,8 67,0 0,5 89 - 0,0 338 1.025,5
12:41 19,2 13,0 15,8 67,0 0,7 247 - 0,0 338 1.025,4
12:40 19,1 12,9 15,7 67,0 1,1 207 - 0,0 303 1.025,4
12:39 19,1 12,9 15,7 67,0 0,3 176 - 0,0 217 1.025,4
12:38 19,1 13,0 15,7 67,4 0,6 30 - 0,0 486 1.025,4
12:37 19,0 13,1 15,8 68,0 1,2 147 - 0,0 613 1.025,4
12:36 19,0 13,0 15,8 68,0 1,1 61 - 0,0 610 1.025,5
12:35 18,9 13,0 15,7 68,0 0,9 199 - 0,0 580 1.025,5
12:34 18,9 12,9 15,7 68,0 1,1 104 - 0,0 571 1.025,5
12:33 18,8 12,9 15,6 68,0 1,4 186 - 0,0 589 1.025,5
12:32 18,8 12,9 15,6 68,0 1,3 134 - 0,0 575 1.025,5
12:31 18,8 12,9 15,6 68,0 1,1 240 - 0,0 575 1.025,6
12:30 18,8 12,8 15,6 68,0 0,7 145 - 0,0 511 1.025,6
12:29 18,7 12,8 15,5 68,0 1,2 79 - 0,0 520 1.025,6
12:28 18,7 12,8 15,5 68,0 1,2 34 - 0,0 573 1.025,6
12:27 18,7 12,7 15,5 68,0 0,6 137 - 0,0 330 1.025,6
12:26 18,7 12,7 15,5 68,0 1,1 227 - 0,0 156 1.025,6
12:25 18,7 12,7 15,5 68,0 0,7 101 - 0,0 156 1.025,7
12:24 18,6 12,8 15,5 68,7 1,2 67 - 0,0 155 1.025,6
12:23 18,6 12,9 15,5 69,0 1,2 140 - 0,0 191 1.025,6
12:22 18,6 12,7 15,4 68,2 1,4 113 - 0,0 290 1.025,6
12:21 18,5 12,8 15,5 69,0 1,2 103 - 0,0 290 1.025,6
12:20 18,5 12,8 15,5 69,0 0,9 205 - 0,0 290 1.025,7
12:19 18,4 12,7 15,4 69,0 0,8 67 - 0,0 353 1.025,7
12:18 18,4 12,9 15,5 69,7 1,2 159 - 0,0 360 1.025,6
12:17 18,4 12,9 15,5 70,0 1,6 170 - 0,0 373 1.025,7
12:16 18,4 12,9 15,5 70,0 1,3 180 - 0,0 416 1.025,7
12:15 18,3 12,9 15,5 70,0 1,2 103 - 0,0 455 1.025,6
12:14 18,3 12,8 15,4 70,0 0,8 119 - 0,0 504 1.025,6
12:13 18,2 12,8 15,4 70,0 0,4 285 - 0,0 516 1.025,7
12:12 18,2 12,7 15,4 70,0 0,5 222 - 0,0 567 1.025,7
12:11 18,2 12,7 15,3 70,0 1,0 111 - 0,0 553 1.025,8
12:10 18,2 12,9 15,5 71,0 1,5 219 - 0,0 542 1.025,8
12:09 18,2 12,9 15,4 71,0 2,0 196 - 0,0 541 1.025,8
12:08 18,1 12,9 15,4 71,0 1,7 205 - 0,0 538 1.025,8
12:07 18,1 12,8 15,4 71,0 1,7 263 - 0,0 536 1.025,7
12:06 18,0 12,8 15,3 71,0 1,1 212 - 0,0 520 1.025,7
12:05 18,0 12,9 15,4 71,9 1,2 122 - 0,0 528 1.025,7
12:04 17,9 12,9 15,4 72,0 1,3 247 - 0,0 538 1.025,7
12:03 17,9 12,9 15,3 72,0 1,0 190 - 0,0 533 1.025,8
12:02 17,9 12,8 15,3 72,0 1,2 88 - 0,0 529 1.025,8
12:01 17,8 12,9 15,4 72,7 0,7 130 - 0,0 529 1.025,8
12:00 17,8 12,9 15,4 73,0 0,9 267 - 0,0 527 1.025,8
 
11:58 17,8 12,9 15,4 73,0 0,7 174 - 0,0 522 1.025,8
11:57 17,7 13,0 15,4 73,4 1,0 84 - 0,0 520 1.025,9
11:56 17,7 13,1 15,4 74,0 1,1 180 - 0,0 517 1.025,8
11:55 17,7 13,1 15,4 74,0 1,6 152 - 0,0 517 1.025,9
11:54 17,7 13,2 15,5 74,8 1,7 155 - 0,0 515 1.025,9
11:53 17,6 13,2 15,5 75,0 1,0 127 - 0,0 516 1.025,9
11:52 17,6 13,2 15,5 75,0 0,5 267 - 0,0 514 1.026,0
11:51 17,6 13,1 15,4 75,0 0,7 112 - 0,0 508 1.026,0
11:50 17,6 13,1 15,4 75,0 0,8 197 - 0,0 509 1.026,0
11:49 17,5 13,2 15,5 75,7 0,8 54 - 0,0 506 1.026,0
11:48 17,5 13,2 15,5 76,0 1,0 92 - 0,0 503 1.026,0
11:47 17,4 13,2 15,5 76,0 1,2 182 - 0,0 501 1.026,0
11:46 17,4 13,2 15,4 76,0 1,3 128 - 0,0 499 1.026,0
11:45 17,4 13,3 15,5 76,4 1,5 95 - 0,0 497 1.026,0
11:44 17,4 13,4 15,5 77,0 1,2 161 - 0,0 501 1.026,0
11:43 17,4 13,4 15,5 77,0 1,5 257 - 0,0 500 1.026,0
11:42 17,3 13,3 15,5 77,0 1,5 193 - 0,0 496 1.026,1
11:41 17,3 13,3 15,5 77,0 1,4 267 - 0,0 494 1.026,1
11:40 17,3 13,3 15,4 77,0 1,9 162 - 0,0 495 1.026,2
11:39 17,3 13,3 15,4 77,0 2,4 190 - 0,0 495 1.026,2
11:38 17,2 13,2 15,4 77,0 2,4 237 - 0,0 490 1.026,2
11:37 17,2 13,2 15,4 77,0 1,8 197 - 0,0 489 1.026,1
11:36 17,2 13,2 15,3 77,0 0,8 238 - 0,0 486 1.026,2
11:35 17,2 13,2 15,3 77,0 0,5 88 - 0,0 486 1.026,2
11:34 17,1 13,1 15,3 77,0 1,2 124 - 0,0 487 1.026,2
11:33 17,1 13,2 15,3 77,5 1,4 118 - 0,0 484 1.026,1
11:32 17,1 13,3 15,4 78,0 1,6 168 - 0,0 482 1.026,1
11:31 17,1 13,2 15,4 78,0 1,4 157 - 0,0 482 1.026,1
11:30 17,0 13,2 15,3 78,0 1,1 211 - 0,0 479 1.026,2
11:29 17,0 13,2 15,3 78,0 1,0 206 - 0,0 475 1.026,2
11:28 17,0 13,1 15,3 78,0 1,0 183 - 0,0 476 1.026,2
11:27 16,9 13,1 15,2 78,0 1,0 186 - 0,0 476 1.026,3
11:26 16,9 13,1 15,2 78,0 0,9 219 - 0,0 475 1.026,3
11:25 16,9 13,1 15,2 78,0 0,9 130 - 0,0 382 1.026,3
11:24 16,8 13,0 15,1 78,0 1,1 197 - 0,0 109 1.026,3
11:23 16,8 13,0 15,1 78,0 1,2 179 - 0,0 109 1.026,2
11:22 16,8 13,0 15,1 78,0 1,3 190 - 0,0 109 1.026,2
11:21 16,8 13,0 15,1 78,0 1,3 170 - 0,0 52 1.026,2
11:20 16,8 13,0 15,1 78,0 1,3 190 - 0,0 37 1.026,2
11:19 16,7 12,9 15,0 78,0 1,2 150 - 0,0 37 1.026,3
11:18 16,7 12,9 15,0 78,0 1,2 193 - 0,0 37 1.026,3
11:17 16,7 12,9 15,0 78,0 1,7 172 - 0,0 37 1.026,3
11:16 16,7 12,9 15,0 78,0 2,2 198 - 0,0 37 1.026,2
11:15 16,6 12,8 14,9 78,0 2,5 207 - 0,0 37 1.026,3
11:14 16,6 12,8 14,9 78,0 2,7 210 - 0,0 37 1.026,2
11:13 16,6 12,8 14,9 78,0 2,6 194 - 0,0 35 1.026,2
11:12 16,6 12,8 14,9 78,0 2,4 172 - 0,0 35 1.026,2
11:11 16,6 12,7 14,8 78,0 2,3 178 - 0,0 35 1.026,2
11:10 16,6 12,7 14,8 78,0 2,4 147 - 0,0 35 1.026,2
11:09 16,5 12,7 14,8 78,0 2,0 186 - 0,0 35 1.026,3
11:08 16,5 12,7 14,8 78,0 1,7 178 - 0,0 35 1.026,3
11:07 16,5 12,7 14,8 78,0 1,7 211 - 0,0 35 1.026,3
11:06 16,5 12,7 14,8 78,0 1,7 176 - 0,0 35 1.026,3
11:05 16,4 12,7 14,8 78,3 1,9 151 - 0,0 35 1.026,3
11:04 16,4 12,8 14,9 79,0 2,0 168 - 0,0 35 1.026,3
11:03 16,4 12,8 14,9 79,0 1,7 182 - 0,0 35 1.026,3
11:02 16,4 12,8 14,8 79,0 1,2 109 - 0,0 35 1.026,3
11:01 16,4 12,8 14,8 79,0 1,2 74 - 0,0 35 1.026,3
11:00 16,3 12,7 14,8 79,0 1,3 180 - 0,0 35 1.026,2
 
10:59 16,3 12,7 14,7 79,0 1,7 203 - 0,0 35 1.026,3
10:58 16,3 12,7 14,7 79,0 1,3 148 - 0,0 35 1.026,2
10:57 16,3 12,7 14,7 79,0 0,7 192 - 0,0 35 1.026,3
10:56 16,3 12,7 14,7 79,0 0,9 278 - 0,0 33 1.026,3
10:55 16,2 12,6 14,7 79,0 1,2 185 - 0,0 33 1.026,3
10:54 16,2 12,8 14,7 80,0 1,6 199 - 0,0 33 1.026,3
10:53 16,2 12,7 14,7 79,7 1,5 198 - 0,0 33 1.026,2
10:52 16,2 12,6 14,7 79,5 1,8 180 - 0,0 33 1.026,2
10:51 16,2 12,7 14,7 80,0 2,5 197 - 0,0 33 1.026,2
10:50 16,1 12,7 14,7 80,0 2,6 196 - 0,0 33 1.026,3
10:49 16,1 12,7 14,6 80,0 2,2 157 - 0,0 33 1.026,3
10:48 16,1 12,6 14,6 80,0 1,7 172 - 0,0 33 1.026,3
10:47 16,0 12,6 14,6 80,0 1,3 126 - 0,0 33 1.026,3
10:46 16,0 12,6 14,6 80,0 1,1 194 - 0,0 33 1.026,3
10:45 16,0 12,6 14,6 80,0 1,2 125 - 0,0 33 1.026,3
10:44 16,0 12,5 14,5 80,0 1,5 200 - 0,0 33 1.026,3
10:43 15,9 12,5 14,5 80,0 1,7 181 - 0,0 33 1.026,3
10:42 15,9 12,5 14,5 80,0 1,3 232 - 0,0 33 1.026,2
10:41 15,9 12,5 14,4 80,0 1,0 151 - 0,0 33 1.026,2
10:40 15,9 12,5 14,4 80,0 1,1 207 - 0,0 33 1.026,2
10:39 15,9 12,5 14,4 80,0 1,4 142 - 0,0 33 1.026,3
10:38 15,9 12,5 14,4 80,0 1,9 202 - 0,0 33 1.026,2
10:37 15,8 12,4 14,4 80,0 2,3 176 - 0,0 33 1.026,2
10:36 15,8 12,5 14,4 80,2 2,1 191 - 0,0 33 1.026,2
10:35 15,8 12,6 14,5 81,0 1,6 169 - 0,0 33 1.026,3
10:34 15,8 12,6 14,5 81,0 1,3 177 - 0,0 33 1.026,3
10:33 15,8 12,5 14,5 81,0 1,4 167 - 0,0 33 1.026,2
10:32 15,7 12,5 14,4 81,0 1,7 178 - 0,0 33 1.026,2
10:31 15,7 12,5 14,4 81,0 1,9 204 - 0,0 33 1.026,3
10:30 15,7 12,4 14,4 81,0 1,8 200 - 0,0 33 1.026,3
10:29 15,7 12,4 14,3 81,0 2,0 205 - 0,0 33 1.026,3
10:28 15,7 12,4 14,3 81,0 2,2 190 - 0,0 33 1.026,3
10:27 15,6 12,4 14,3 81,0 2,2 190 - 0,0 33 1.026,3
10:26 15,6 12,4 14,3 81,0 1,8 190 - 0,0 33 1.026,3
10:25 15,6 12,4 14,3 81,0 1,8 193 - 0,0 33 1.026,4
10:24 15,6 12,3 14,2 81,0 2,1 195 - 0,0 33 1.026,3
10:23 15,6 12,3 14,2 81,0 2,5 181 - 0,0 33 1.026,3
10:22 15,6 12,3 14,2 81,0 2,4 195 - 0,0 33 1.026,4
10:21 15,6 12,5 14,3 81,7 1,8 180 - 0,0 33 1.026,4
10:20 15,5 12,3 14,2 81,2 1,5 213 - 0,0 33 1.026,4
10:19 15,5 12,3 14,2 81,2 1,8 184 - 0,0 32 1.026,4
10:18 15,5 12,4 14,3 82,0 2,0 200 - 0,0 32 1.026,4
10:17 15,4 12,4 14,2 82,0 1,7 209 - 0,0 32 1.026,4
10:16 15,4 12,4 14,2 82,0 1,4 276 - 0,0 32 1.026,4
10:15 15,4 12,4 14,2 82,0 1,6 158 - 0,0 32 1.026,4
10:14 15,4 12,3 14,2 82,0 2,0 197 - 0,0 32 1.026,4
10:13 15,3 12,3 14,2 82,0 1,9 163 - 0,0 32 1.026,4
10:12 15,3 12,3 14,1 82,0 2,2 201 - 0,0 32 1.026,3
10:11 15,3 12,3 14,1 82,0 2,4 186 - 0,0 32 1.026,4
10:10 15,3 12,3 14,1 82,0 2,1 217 - 0,0 32 1.026,4
10:09 15,3 12,3 14,1 82,1 1,8 178 - 0,0 32 1.026,4
10:08 15,3 12,4 14,2 83,0 1,6 178 - 0,0 32 1.026,4
10:07 15,2 12,4 14,1 83,0 1,3 186 - 0,0 32 1.026,4
10:06 15,2 12,3 14,1 82,5 1,3 162 - 0,0 32 1.026,3
10:05 15,2 12,2 14,0 82,0 1,1 145 - 0,0 31 1.026,3
10:04 15,2 12,3 14,1 82,6 1,7 231 - 0,0 30 1.026,3
10:03 15,2 12,3 14,1 83,0 2,2 190 - 0,0 30 1.026,3
10:02 15,2 12,3 14,1 83,0 2,3 192 - 0,0 31 1.026,3
10:01 15,1 12,3 14,1 83,0 2,3 195 - 0,0 32 1.026,3
10:00 15,1 12,3 14,0 83,0 2,5 176 - 0,0 32 1.026,3
 
09:59 15,1 12,2 14,0 83,0 2,7 157 - 0,0 32 1.026,4
09:58 15,1 12,2 14,0 83,0 2,2 163 - 0,0 32 1.026,4
09:57 15,1 12,2 14,0 83,0 1,6 178 - 0,0 32 1.026,4
09:56 15,1 12,2 14,0 83,0 1,9 238 - 0,0 31 1.026,4
09:55 15,0 12,2 14,0 83,0 2,1 199 - 0,0 30 1.026,5
09:54 15,0 12,2 14,0 83,4 2,6 139 - 0,0 30 1.026,5
09:53 15,0 12,2 13,9 83,5 2,7 184 - 0,0 32 1.026,5
09:52 14,9 12,1 13,9 83,1 2,4 198 - 0,0 32 1.026,5
09:51 14,9 12,2 13,9 84,0 1,6 165 - 0,0 32 1.026,5
09:50 14,9 12,2 13,9 84,0 1,6 245 - 0,0 32 1.026,5
09:49 14,9 12,2 13,9 84,0 2,2 180 - 0,0 32 1.026,5
09:48 14,8 12,2 13,9 84,0 2,4 218 - 0,0 33 1.026,5
09:47 14,8 12,2 13,9 84,0 2,5 149 - 0,0 33 1.026,4
09:46 14,8 12,1 13,8 84,0 2,7 175 - 0,0 33 1.026,4
09:45 14,8 12,2 13,9 84,8 2,8 209 - 0,0 36 1.026,4
09:44 14,7 12,2 13,9 85,0 2,7 203 - 0,0 38 1.026,4
09:43 14,7 12,2 13,9 85,0 2,3 186 - 0,0 40 1.026,4
09:42 14,7 12,2 13,9 85,0 1,9 206 - 0,0 42 1.026,4
09:41 14,7 12,2 13,8 85,0 1,7 158 - 0,0 42 1.026,3
09:40 14,6 12,1 13,8 85,0 1,7 178 - 0,0 45 1.026,3
09:39 14,6 12,1 13,8 85,0 1,6 205 - 0,0 46 1.026,2
09:38 14,6 12,1 13,7 85,0 1,5 177 - 0,0 46 1.026,2
09:37 14,6 12,1 13,7 85,0 1,4 186 - 0,0 47 1.026,3
09:36 14,6 12,1 13,7 85,0 1,2 182 - 0,0 47 1.026,3
09:35 14,5 12,0 13,7 85,0 0,8 182 - 0,0 47 1.026,2
09:34 14,5 12,0 13,6 85,0 0,9 182 - 0,0 46 1.026,2
09:33 14,5 12,0 13,6 85,0 1,0 174 - 0,0 47 1.026,2
09:32 14,4 12,1 13,7 86,0 0,9 197 - 0,0 47 1.026,2
09:31 14,4 12,1 13,7 85,7 0,8 201 - 0,0 47 1.026,2
09:30 14,4 11,9 13,6 85,0 0,8 167 - 0,0 47 1.026,2
09:29 14,4 12,0 13,6 85,6 1,0 157 - 0,0 47 1.026,1
09:28 14,3 12,0 13,6 86,0 1,0 151 - 0,0 47 1.026,1
09:27 14,3 12,0 13,6 86,0 0,9 161 - 0,0 49 1.026,2
09:26 14,3 12,0 13,5 86,0 0,8 108 - 0,0 49 1.026,2
09:25 14,3 12,0 13,5 86,0 0,8 117 - 0,0 49 1.026,1
09:24 14,2 11,9 13,5 86,0 0,7 113 - 0,0 49 1.026,1
09:23 14,2 11,9 13,4 86,0 0,6 82 - 0,0 47 1.026,1
09:22 14,2 11,9 13,4 86,0 0,5 127 - 0,0 47 1.026,1
09:21 14,2 11,8 13,4 86,0 0,6 167 - 0,0 46 1.026,1
09:20 14,1 11,8 13,4 86,0 0,8 180 - 0,0 44 1.026,1
09:19 14,1 11,8 13,3 86,0 0,8 164 - 0,0 44 1.026,1
09:18 14,0 11,7 13,3 86,0 0,8 108 - 0,0 42 1.026,1
09:17 14,0 11,7 13,3 86,0 1,0 134 - 0,0 39 1.026,1
09:16 14,0 11,7 13,3 86,0 1,1 74 - 0,0 39 1.026,1
09:15 14,0 11,6 13,2 86,0 1,0 112 - 0,0 37 1.026,1
09:14 13,9 11,6 13,2 86,0 0,9 99 - 0,0 36 1.026,1
09:13 13,9 11,6 13,2 86,0 0,9 134 - 0,0 35 1.026,1
09:12 13,9 11,6 13,2 86,5 0,8 78 - 0,0 33 1.026,1
09:11 13,8 11,7 13,2 87,0 0,7 171 - 0,0 33 1.026,1
09:10 13,8 11,7 13,2 87,0 0,8 138 - 0,0 32 1.026,1
09:09 13,8 11,7 13,2 87,0 0,8 120 - 0,0 31 1.026,1
09:08 13,8 11,7 13,2 87,0 0,7 134 - 0,0 30 1.026,1
09:07 13,7 11,6 13,1 87,0 0,7 142 - 0,0 30 1.026,1
09:06 13,7 11,6 13,1 87,0 0,9 126 - 0,0 30 1.026,1
09:05 13,7 11,5 13,0 87,0 1,1 118 - 0,0 30 1.026,1
09:04 13,7 11,5 13,0 87,0 1,0 109 - 0,0 30 1.026,1
09:03 13,6 11,5 13,0 87,0 0,9 91 - 0,0 30 1.026,1
09:02 13,6 11,5 13,0 87,0 0,5 86 - 0,0 29 1.026,1
09:01 13,6 11,4 12,9 87,0 0,6 209 - 0,0 28 1.026,1
09:00 13,6 11,4 12,9 87,0 0,9 118 - 0,0 28 1.026,1
 
08:59 13,5 11,4 12,9 87,0 1,1 151 - 0,0 28 1.026,1
08:58 13,5 11,4 12,8 87,0 1,2 104 - 0,0 88 1.026,0
08:57 13,5 11,3 12,8 87,0 1,2 111 - 0,0 197 1.026,0
08:56 13,4 11,3 12,8 87,0 1,0 144 - 0,0 197 1.026,0
08:55 13,4 11,3 12,7 87,0 0,7 167 - 0,0 197 1.026,1
08:54 13,4 11,2 12,7 87,0 0,6 60 - 0,0 191 1.026,1
08:53 13,3 11,2 12,7 87,0 0,7 176 - 0,0 192 1.026,1
08:52 13,3 11,2 12,6 87,0 1,0 182 - 0,0 189 1.026,1
08:51 13,3 11,2 12,6 87,0 1,0 154 - 0,0 187 1.026,1
08:50 13,3 11,2 12,6 87,3 1,1 103 - 0,0 185 1.026,0
08:49 13,2 11,3 12,7 88,0 1,1 134 - 0,0 183 1.026,0
08:48 13,2 11,2 12,7 88,0 1,1 147 - 0,0 181 1.026,1
08:47 13,2 11,2 12,6 88,0 1,0 142 - 0,0 179 1.026,1
08:46 13,1 11,2 12,6 88,0 0,8 146 - 0,0 177 1.026,1
08:45 13,1 11,1 12,5 87,8 0,4 234 - 0,0 174 1.026,1
08:44 13,1 10,9 12,4 87,0 0,7 74 - 0,0 171 1.026,1
08:43 13,1 11,0 12,4 87,5 1,4 111 - 0,0 169 1.026,1
08:42 13,0 11,1 12,5 88,0 1,3 91 - 0,0 165 1.026,1
08:41 13,0 11,0 12,4 88,0 1,0 76 - 0,0 163 1.026,1
08:40 13,0 11,0 12,4 88,0 0,9 171 - 0,0 161 1.026,1
08:39 13,0 11,0 12,4 88,0 1,2 129 - 0,0 159 1.026,1
08:38 12,9 11,0 12,4 88,0 1,4 118 - 0,0 156 1.026,1
08:37 12,9 10,9 12,3 88,0 1,3 103 - 0,0 153 1.026,2
08:36 12,9 10,9 12,3 88,0 1,1 95 - 0,0 151 1.026,2
08:35 12,8 10,9 12,3 88,0 1,1 134 - 0,0 148 1.026,2
08:34 12,8 10,8 12,2 88,0 1,0 100 - 0,0 145 1.026,1
08:33 12,8 10,8 12,2 88,0 1,0 115 - 0,0 143 1.026,1
08:32 12,8 10,8 12,2 88,0 1,1 125 - 0,0 140 1.026,1
08:31 12,7 10,8 12,2 88,0 1,1 107 - 0,0 137 1.026,2
08:30 12,7 10,8 12,2 88,0 1,1 90 - 0,0 134 1.026,2
08:29 12,7 10,7 12,1 88,0 0,9 118 - 0,0 133 1.026,2
08:28 12,7 10,7 12,1 88,0 0,8 118 - 0,0 129 1.026,2
08:27 12,6 10,7 12,1 88,0 0,8 115 - 0,0 127 1.026,2
08:26 12,6 10,7 12,1 88,0 0,8 98 - 0,0 126 1.026,2
08:25 12,6 10,6 12,0 88,0 0,7 108 - 0,0 122 1.026,2
08:24 12,6 10,6 12,0 88,0 0,6 134 - 0,0 120 1.026,2
08:23 12,6 10,6 12,0 88,0 0,6 91 - 0,0 117 1.026,1
08:22 12,5 10,6 12,0 88,0 0,6 107 - 0,0 113 1.026,1
08:21 12,5 10,6 11,9 88,0 0,7 188 - 0,0 111 1.026,1
08:20 12,5 10,5 11,9 88,0 0,9 103 - 0,0 109 1.026,1
08:19 12,4 10,5 11,9 88,0 1,1 93 - 0,0 107 1.026,1
08:18 12,4 10,5 11,9 88,0 1,0 105 - 0,0 104 1.026,1
08:17 12,4 10,5 11,8 88,0 1,0 109 - 0,0 101 1.026,1
08:16 12,4 10,4 11,8 88,0 1,0 97 - 0,0 99 1.026,1
08:15 12,4 10,4 11,8 88,0 0,8 113 - 0,0 97 1.026,2
08:14 12,4 10,4 11,8 88,0 0,6 60 - 0,0 96 1.026,1
08:13 12,4 10,4 11,8 88,0 0,6 118 - 0,0 93 1.026,2
08:12 12,3 10,4 11,8 88,0 0,6 99 - 0,0 90 1.026,2
08:11 12,3 10,4 11,8 88,0 0,6 90 - 0,0 87 1.026,2
08:10 12,3 10,4 11,7 88,0 0,7 144 - 0,0 84 1.026,2
08:09 12,3 10,3 11,7 88,0 0,8 93 - 0,0 81 1.026,2
08:08 12,3 10,3 11,7 88,0 1,0 101 - 0,0 81 1.026,2
08:07 12,3 10,3 11,7 88,0 1,1 116 - 0,0 79 1.026,2
08:06 12,3 10,3 11,7 88,0 1,2 114 - 0,0 76 1.026,2
08:05 12,2 10,3 11,6 88,0 1,1 129 - 0,0 72 1.026,1
08:04 12,2 10,3 11,6 88,0 1,1 102 - 0,0 72 1.026,0
08:03 12,2 10,3 11,6 88,0 1,2 75 - 0,0 70 1.026,0
08:02 12,2 10,2 11,6 88,0 1,2 120 - 0,0 68 1.026,1
08:01 12,2 10,2 11,6 88,0 1,1 101 - 0,0 66 1.026,0
08:00 12,2 10,2 11,6 88,0 0,9 140 - 0,0 63 1.026,1
 
07:59 12,2 10,2 11,6 88,0 0,9 115 - 0,0 63 1.026,1
07:58 12,2 10,2 11,6 88,0 1,1 105 - 0,0 61 1.026,1
07:57 12,2 10,2 11,6 88,0 1,1 142 - 0,0 59 1.026,1
07:56 12,1 10,2 11,6 88,0 1,2 144 - 0,0 56 1.026,1
07:55 12,1 10,2 11,5 88,0 1,4 104 - 0,0 54 1.026,1
07:54 12,1 10,2 11,5 88,0 1,5 106 - 0,0 54 1.026,1
07:53 12,1 10,2 11,5 88,0 1,4 99 - 0,0 52 1.026,1
07:52 12,1 10,2 11,5 88,0 1,4 93 - 0,0 50 1.026,1
07:51 12,1 10,2 11,5 88,0 1,4 103 - 0,0 46 1.026,1
07:50 12,1 10,2 11,5 88,0 1,2 78 - 0,0 44 1.026,1
07:49 12,1 10,2 11,5 88,0 1,0 78 - 0,0 44 1.026,0
07:48 12,1 10,1 11,5 88,0 0,8 150 - 0,0 44 1.026,0
07:47 12,1 10,1 11,5 88,0 1,0 138 - 0,0 43 1.026,0
07:46 12,1 10,1 11,5 88,0 1,0 110 - 0,0 41 1.026,0
07:45 12,1 10,1 11,5 88,0 1,0 165 - 0,0 40 1.026,0
07:44 12,1 10,1 11,5 88,0 1,2 88 - 0,0 39 1.026,0
07:43 12,1 10,1 11,5 88,0 1,3 96 - 0,0 39 1.026,0
07:42 12,1 10,0 11,4 87,2 1,2 122 - 0,0 36 1.026,0
07:41 12,1 10,1 11,5 88,0 1,1 100 - 0,0 35 1.026,0
07:40 12,1 10,1 11,5 87,8 1,1 89 - 0,0 34 1.026,0
07:39 12,1 10,0 11,4 87,0 0,8 100 - 0,0 33 1.026,0
07:38 12,1 9,9 11,4 87,0 0,8 166 - 0,0 32 1.025,9
07:37 12,1 9,9 11,4 87,0 0,9 141 - 0,0 30 1.026,0
07:36 12,1 9,9 11,4 87,0 0,8 167 - 0,0 29 1.026,0
07:35 12,1 9,9 11,4 87,0 0,8 100 - 0,0 28 1.025,9
07:34 12,1 10,0 11,4 87,0 0,9 107 - 0,0 27 1.025,9
07:33 12,1 9,9 11,4 87,0 0,8 143 - 0,0 25 1.025,9
07:32 12,1 10,0 11,4 87,0 0,9 101 - 0,0 25 1.025,9
07:31 12,1 9,9 11,4 87,0 1,2 105 - 0,0 23 1.025,9
07:30 12,1 9,9 11,4 87,0 1,4 93 - 0,0 21 1.025,9
07:29 12,1 10,0 11,4 87,0 1,2 105 - 0,0 20 1.025,9
07:28 12,1 10,0 11,4 87,0 1,0 150 - 0,0 19 1.025,9
07:27 12,1 10,0 11,4 87,0 1,0 113 - 0,0 18 1.025,9
07:26 12,1 10,0 11,4 87,0 1,3 86 - 0,0 18 1.025,9
07:25 12,1 10,0 11,4 87,0 1,4 101 - 0,0 16 1.025,9
07:24 12,1 10,0 11,4 87,0 1,4 89 - 0,0 15 1.025,9
07:23 12,1 10,0 11,4 87,0 1,4 109 - 0,0 14 1.026,0
07:22 12,1 10,0 11,4 87,0 1,4 105 - 0,0 14 1.025,9
07:21 12,1 10,0 11,4 87,0 1,4 101 - 0,0 12 1.025,9
07:20 12,1 10,0 11,4 87,0 1,2 97 - 0,0 12 1.025,9
07:19 12,1 10,0 11,4 87,0 1,0 79 - 0,0 12 1.025,9
07:18 12,1 10,0 11,4 87,0 1,1 101 - 0,0 11 1.025,9
07:17 12,1 10,0 11,4 87,0 1,1 94 - 0,0 11 1.025,9
07:16 12,1 10,0 11,4 87,0 1,0 73 - 0,0 11 1.025,9
07:15 12,2 10,0 11,5 87,0 1,0 110 - 0,0 11 1.025,9
07:14 12,2 10,0 11,5 87,0 1,2 125 - 0,0 11 1.025,8
07:13 12,2 10,1 11,5 87,0 1,4 122 - 0,0 9 1.025,8
07:12 12,2 10,1 11,5 87,0 1,3 101 - 0,0 9 1.025,7
07:11 12,1 10,0 11,5 87,0 1,2 77 - 0,0 9 1.025,7
07:10 12,2 10,0 11,5 87,0 1,1 91 - 0,0 9 1.025,8
07:09 12,1 10,0 11,5 87,0 1,1 81 - 0,0 7 1.025,8
07:08 12,2 10,1 11,5 87,0 1,0 113 - 0,0 7 1.025,8
07:07 12,2 10,0 11,5 87,0 1,1 113 - 0,0 7 1.025,8
07:06 12,2 10,0 11,5 87,0 1,0 106 - 0,0 7 1.025,8
07:05 12,2 10,0 11,5 87,0 1,1 95 - 0,0 7 1.025,8
07:04 12,2 10,1 11,5 87,0 1,3 107 - 0,0 6 1.025,8
07:03 12,2 10,1 11,5 87,0 1,4 101 - 0,0 5 1.025,8
07:02 12,2 10,1 11,5 87,0 1,5 104 - 0,0 5 1.025,8
07:01 12,2 10,1 11,5 87,0 1,7 92 - 0,0 5 1.025,8
07:00 12,2 10,1 11,5 87,0 1,6 103 - 0,0 5 1.025,8
 
06:59 12,2 10,1 11,5 87,0 1,2 97 - 0,0 2 1.025,7
06:58 12,2 10,1 11,5 87,0 0,7 146 - 0,0 0 1.025,8
06:57 12,2 10,1 11,5 87,0 0,7 176 - 0,0 0 1.025,8
06:56 12,2 10,1 11,5 87,0 0,8 166 - 0,0 0 1.025,8
06:55 12,2 10,1 11,5 87,0 0,9 134 - 0,0 0 1.025,8
06:54 12,2 10,1 11,5 87,0 0,8 150 - 0,0 0 1.025,7
06:53 12,2 10,1 11,5 87,0 0,7 199 - 0,0 0 1.025,7
06:52 12,2 10,1 11,5 87,0 0,7 135 - 0,0 0 1.025,7
06:51 12,3 10,2 11,6 87,0 0,9 101 - 0,0 0 1.025,8
06:50 12,3 10,2 11,6 87,0 1,0 72 - 0,0 0 1.025,8
06:49 12,3 10,2 11,6 87,0 1,2 105 - 0,0 0 1.025,8
06:48 12,3 10,2 11,6 87,0 1,4 140 - 0,0 0 1.025,7
06:47 12,3 10,2 11,6 87,0 1,6 107 - 0,0 0 1.025,7
06:46 12,3 10,2 11,6 87,0 1,7 99 - 0,0 0 1.025,7
06:45 12,3 10,2 11,6 87,0 1,3 101 - 0,0 0 1.025,7
06:44 12,3 10,2 11,6 87,0 1,1 98 - 0,0 0 1.025,8
06:43 12,3 10,2 11,6 86,8 1,1 85 - 0,0 0 1.025,7
06:42 12,4 10,1 11,6 86,0 0,9 91 - 0,0 0 1.025,7
06:41 12,4 10,1 11,6 86,0 0,8 143 - 0,0 0 1.025,8
06:40 12,4 10,1 11,6 86,0 0,9 126 - 0,0 0 1.025,8
06:39 12,4 10,1 11,6 86,0 1,0 120 - 0,0 0 1.025,8
06:38 12,4 10,1 11,6 86,0 1,1 103 - 0,0 0 1.025,7
06:37 12,4 10,1 11,6 86,0 1,0 105 - 0,0 0 1.025,7
06:36 12,4 10,2 11,7 86,0 1,0 126 - 0,0 0 1.025,7
06:35 12,4 10,2 11,7 86,0 1,2 88 - 0,0 0 1.025,7
06:34 12,5 10,2 11,7 86,0 1,7 79 - 0,0 0 1.025,7
06:33 12,5 10,2 11,7 86,0 1,9 87 - 0,0 0 1.025,7
06:32 12,5 10,2 11,7 86,0 1,9 99 - 0,0 0 1.025,7
06:31 12,5 10,4 11,9 87,0 1,8 91 - 0,0 0 1.025,8
06:30 12,6 10,4 11,9 87,0 1,7 80 - 0,0 0 1.025,7
06:29 12,6 10,4 11,9 87,0 1,5 88 - 0,0 0 1.025,7
06:28 12,6 10,4 11,9 87,0 1,6 101 - 0,0 0 1.025,7
06:27 12,6 10,4 11,9 87,0 1,7 95 - 0,0 0 1.025,7
06:26 12,6 10,5 11,9 87,0 1,6 93 - 0,0 0 1.025,7
06:25 12,6 10,5 11,9 87,0 1,4 88 - 0,0 0 1.025,7
06:24 12,6 10,5 11,9 87,0 1,3 107 - 0,0 0 1.025,7
06:23 12,6 10,5 11,9 87,0 1,1 97 - 0,0 0 1.025,8
06:22 12,7 10,5 12,0 87,0 1,0 78 - 0,0 0 1.025,8
06:21 12,6 10,5 12,0 87,0 1,0 88 - 0,0 0 1.025,8
06:20 12,7 10,5 12,0 87,0 1,0 110 - 0,0 0 1.025,7
06:19 12,7 10,5 12,0 87,0 1,0 92 - 0,0 0 1.025,8
06:18 12,7 10,5 12,0 87,0 0,9 96 - 0,0 0 1.025,8
06:17 12,7 10,5 12,0 87,0 0,8 151 - 0,0 0 1.025,8
06:16 12,7 10,6 12,0 87,0 0,8 105 - 0,0 0 1.025,8
06:15 12,7 10,6 12,0 87,0 0,8 110 - 0,0 0 1.025,8
06:14 12,7 10,5 12,0 87,0 0,7 96 - 0,0 0 1.025,7
06:13 12,7 10,6 12,0 87,0 0,6 111 - 0,0 0 1.025,7
06:12 12,7 10,6 12,0 87,0 0,6 106 - 0,0 0 1.025,7
06:11 12,7 10,5 12,0 87,0 0,7 86 - 0,0 0 1.025,7
06:10 12,7 10,6 12,0 87,0 0,7 116 - 0,0 0 1.025,8
06:09 12,7 10,4 11,9 86,3 0,7 116 - 0,0 0 1.025,8
06:08 12,7 10,4 11,9 86,0 0,6 138 - 0,0 0 1.025,8
06:07 12,7 10,4 11,9 86,0 0,6 142 - 0,0 0 1.025,8
06:06 12,7 10,4 11,9 86,0 0,6 147 - 0,0 0 1.025,9
06:05 12,7 10,4 11,9 86,0 0,6 95 - 0,0 0 1.025,8
06:04 12,7 10,4 11,9 86,0 0,7 142 - 0,0 0 1.025,8
06:03 12,7 10,4 11,9 86,0 0,9 102 - 0,0 0 1.025,8
06:02 12,8 10,5 12,0 86,0 0,9 103 - 0,0 0 1.025,8
06:01 12,8 10,5 12,0 86,0 0,7 107 - 0,0 0 1.025,8
06:00 12,8 10,5 12,0 86,0 0,5 132 - 0,0 0 1.025,8
 
05:59 12,8 10,5 12,0 86,0 0,4 178 - 0,0 0 1.025,8
05:58 12,8 10,5 12,0 86,0 0,3 190 - 0,0 0 1.025,8
05:57 12,8 10,5 12,0 86,0 0,3 145 - 0,0 0 1.025,8
05:56 12,8 10,5 12,0 86,0 0,5 145 - 0,0 0 1.025,8
05:55 12,8 10,5 12,0 86,0 0,6 125 - 0,0 0 1.025,8
05:54 12,8 10,5 12,1 86,0 0,7 170 - 0,0 0 1.025,8
05:53 12,9 10,6 12,1 86,0 0,6 128 - 0,0 0 1.025,8
05:52 12,9 10,6 12,1 86,0 0,6 155 - 0,0 0 1.025,8
05:51 12,9 10,6 12,1 86,0 0,7 146 - 0,0 0 1.025,8
05:50 12,9 10,6 12,1 86,0 0,8 102 - 0,0 0 1.025,8
05:49 12,9 10,6 12,1 86,0 0,9 116 - 0,0 0 1.025,7
05:48 12,9 10,6 12,1 86,0 1,1 135 - 0,0 0 1.025,7
05:47 12,9 10,7 12,2 86,0 1,2 112 - 0,0 0 1.025,7
05:46 12,9 10,7 12,2 86,0 1,1 98 - 0,0 0 1.025,8
05:45 13,0 10,7 12,2 86,0 0,9 117 - 0,0 0 1.025,8
05:44 13,0 10,7 12,2 86,0 0,8 120 - 0,0 0 1.025,8
05:43 13,0 10,7 12,2 86,0 0,6 101 - 0,0 0 1.025,8
05:42 13,0 10,7 12,2 86,0 0,6 168 - 0,0 0 1.025,9
05:41 13,0 10,7 12,2 86,0 0,7 145 - 0,0 0 1.025,9
05:40 13,0 10,7 12,3 86,0 0,6 163 - 0,0 0 1.025,9
05:39 13,1 10,8 12,3 86,0 0,6 116 - 0,0 0 1.025,8
05:38 13,1 10,8 12,3 86,0 0,5 138 - 0,0 0 1.025,8
05:37 13,1 10,8 12,3 86,0 0,5 141 - 0,0 0 1.025,8
05:36 13,1 10,8 12,3 86,0 0,6 107 - 0,0 0 1.025,8
05:35 13,1 10,8 12,3 86,0 0,7 111 - 0,0 0 1.025,8
05:34 13,1 10,8 12,4 86,0 0,8 147 - 0,0 0 1.025,8
05:33 13,2 10,9 12,4 86,0 0,8 130 - 0,0 0 1.025,9
05:32 13,2 10,9 12,4 85,9 0,7 148 - 0,0 0 1.025,9
05:31 13,2 10,8 12,3 85,0 0,5 127 - 0,0 0 1.025,9
05:30 13,2 10,8 12,4 85,4 0,6 117 - 0,0 0 1.025,9
05:29 13,2 10,9 12,5 86,0 0,7 116 - 0,0 0 1.025,9
05:28 13,2 10,9 12,5 86,0 0,6 131 - 0,0 0 1.025,9
05:27 13,3 11,0 12,5 86,0 0,6 155 - 0,0 0 1.026,0
05:26 13,3 11,0 12,5 86,0 0,5 121 - 0,0 0 1.026,0
05:25 13,3 11,0 12,5 86,0 0,4 110 - 0,0 0 1.026,0
05:24 13,3 11,0 12,5 85,6 0,3 116 - 0,0 0 1.026,0
05:23 13,3 10,9 12,5 85,0 0,4 97 - 0,0 0 1.025,9
05:22 13,3 10,9 12,5 85,0 0,5 132 - 0,0 0 1.025,9
05:21 13,3 10,9 12,5 85,0 0,5 174 - 0,0 0 1.025,9
05:20 13,4 10,9 12,5 85,0 0,5 106 - 0,0 0 1.026,0
05:19 13,4 10,9 12,5 85,0 0,4 141 - 0,0 0 1.026,0
05:18 13,4 10,9 12,5 85,0 0,3 192 - 0,0 0 1.026,1
05:17 13,4 10,9 12,5 85,0 0,2 86 - 0,0 0 1.026,0
05:16 13,4 10,9 12,5 85,0 0,2 83 - 0,0 0 1.026,1
05:15 13,4 10,9 12,5 85,0 0,3 201 - 0,0 0 1.026,1
05:14 13,4 11,0 12,6 85,0 0,3 105 - 0,0 0 1.026,1
05:13 13,4 11,0 12,6 85,0 0,4 155 - 0,0 0 1.026,1
05:12 13,4 11,0 12,6 85,0 0,5 153 - 0,0 0 1.026,1
05:11 13,5 11,0 12,6 85,0 0,6 179 - 0,0 0 1.026,2
05:10 13,4 11,0 12,6 85,0 0,6 191 - 0,0 0 1.026,2
05:09 13,5 11,0 12,6 85,0 0,6 190 - 0,0 0 1.026,2
05:08 13,5 11,0 12,6 85,0 0,7 213 - 0,0 0 1.026,2
05:07 13,5 11,0 12,6 85,0 0,8 186 - 0,0 0 1.026,2
05:06 13,5 11,0 12,6 85,0 0,9 189 - 0,0 0 1.026,2
05:05 13,5 11,0 12,6 85,0 0,9 176 - 0,0 0 1.026,2
05:04 13,5 11,0 12,6 85,0 0,7 199 - 0,0 0 1.026,3
05:03 13,5 11,0 12,6 85,0 0,7 182 - 0,0 0 1.026,2
05:02 13,5 11,0 12,6 85,0 0,6 192 - 0,0 0 1.026,2
05:01 13,5 11,0 12,7 85,0 0,6 204 - 0,0 0 1.026,2
05:00 13,5 11,1 12,7 85,0 0,4 184 - 0,0 0 1.026,3
 
04:59 13,6 11,1 12,7 85,0 0,5 173 - 0,0 0 1.026,3
04:58 13,6 11,1 12,7 85,0 0,7 173 - 0,0 0 1.026,3
04:57 13,6 11,1 12,7 85,0 0,9 197 - 0,0 0 1.026,3
04:56 13,6 11,1 12,7 85,0 1,0 183 - 0,0 0 1.026,3
04:55 13,6 11,1 12,7 85,0 1,0 173 - 0,0 0 1.026,3
04:54 13,6 11,1 12,7 85,0 1,1 188 - 0,0 0 1.026,3
04:53 13,6 11,1 12,7 85,0 1,0 186 - 0,0 0 1.026,4
04:52 13,6 11,1 12,7 85,0 1,0 180 - 0,0 0 1.026,4
04:51 13,6 11,1 12,7 85,0 1,0 178 - 0,0 0 1.026,4
04:50 13,6 11,1 12,7 85,0 1,0 190 - 0,0 0 1.026,4
04:49 13,6 11,1 12,7 85,0 0,6 176 - 0,0 0 1.026,3
04:48 13,6 11,1 12,7 85,0 0,4 147 - 0,0 0 1.026,3
04:47 13,6 11,1 12,7 85,0 0,2 141 - 0,0 0 1.026,3
04:46 13,6 11,1 12,8 85,0 0,3 142 - 0,0 0 1.026,3
04:45 13,6 11,2 12,8 85,0 0,3 138 - 0,0 0 1.026,3
04:44 13,6 11,2 12,8 85,0 0,3 138 - 0,0 0 1.026,3
04:43 13,7 11,2 12,8 85,0 0,3 182 - 0,0 0 1.026,3
04:42 13,7 11,2 12,8 85,0 0,5 182 - 0,0 0 1.026,4
04:41 13,7 11,2 12,8 85,0 0,8 188 - 0,0 0 1.026,4
04:40 13,7 11,0 12,7 84,1 1,0 192 - 0,0 0 1.026,3
04:39 13,7 11,0 12,7 84,0 1,2 166 - 0,0 0 1.026,3
04:38 13,7 11,0 12,7 84,0 1,2 176 - 0,0 0 1.026,3
04:37 13,7 11,0 12,7 84,0 1,1 199 - 0,0 0 1.026,3
04:36 13,7 11,0 12,7 84,0 0,9 181 - 0,0 0 1.026,3
04:35 13,7 11,1 12,7 84,0 1,0 176 - 0,0 0 1.026,3
04:34 13,7 11,1 12,7 84,0 1,3 184 - 0,0 0 1.026,3
04:33 13,7 11,1 12,7 84,0 1,7 163 - 0,0 0 1.026,3
04:32 13,7 11,1 12,7 84,0 1,9 180 - 0,0 0 1.026,3
04:31 13,7 11,1 12,7 84,0 2,0 178 - 0,0 0 1.026,3
04:30 13,7 11,1 12,7 84,0 2,0 182 - 0,0 0 1.026,4
04:29 13,7 11,1 12,7 84,0 2,0 218 - 0,0 0 1.026,5
04:28 13,7 11,1 12,8 84,0 1,8 171 - 0,0 0 1.026,5
04:27 13,7 11,1 12,8 84,0 1,7 172 - 0,0 0 1.026,5
04:26 13,7 11,1 12,8 84,0 1,6 165 - 0,0 0 1.026,6
04:25 13,8 11,1 12,8 84,0 1,5 168 - 0,0 0 1.026,5
04:24 13,8 11,1 12,8 84,0 1,5 182 - 0,0 0 1.026,5
04:23 13,8 11,1 12,8 84,0 1,4 180 - 0,0 0 1.026,5
04:22 13,8 11,1 12,8 84,0 1,4 178 - 0,0 0 1.026,5
04:21 13,8 11,1 12,8 84,0 1,7 180 - 0,0 0 1.026,5
04:20 13,8 11,1 12,8 84,0 2,0 189 - 0,0 0 1.026,5
04:19 13,8 11,1 12,8 84,0 1,8 182 - 0,0 0 1.026,4
04:18 13,8 11,1 12,8 84,0 1,6 186 - 0,0 0 1.026,4
04:17 13,8 11,1 12,8 84,0 1,6 193 - 0,0 0 1.026,5
04:16 13,8 11,1 12,8 84,0 1,7 169 - 0,0 0 1.026,5
04:15 13,8 11,2 12,8 84,0 1,8 184 - 0,0 0 1.026,5
04:14 13,8 11,2 12,9 84,0 1,9 196 - 0,0 0 1.026,4
04:13 13,8 11,2 12,9 84,0 1,9 186 - 0,0 0 1.026,5
04:12 13,8 11,2 12,9 84,0 1,9 192 - 0,0 0 1.026,5
04:11 13,8 11,2 12,9 84,0 2,1 197 - 0,0 0 1.026,5
04:10 13,8 11,2 12,9 84,0 2,1 188 - 0,0 0 1.026,5
04:09 13,8 11,2 12,9 84,0 2,1 182 - 0,0 0 1.026,5
04:08 13,9 11,2 12,9 84,0 2,1 180 - 0,0 0 1.026,5
04:07 13,9 11,1 12,8 83,5 2,1 184 - 0,0 0 1.026,5
04:06 13,9 11,1 12,8 83,0 1,9 176 - 0,0 0 1.026,5
04:05 13,9 11,1 12,8 83,0 1,9 188 - 0,0 0 1.026,4
04:04 13,9 11,1 12,8 83,0 1,9 189 - 0,0 0 1.026,4
04:03 13,9 11,1 12,8 83,0 1,9 203 - 0,0 0 1.026,4
04:02 13,9 11,1 12,8 83,0 1,7 194 - 0,0 0 1.026,4
04:01 13,9 11,1 12,8 83,0 1,6 199 - 0,0 0 1.026,5
04:00 13,9 11,1 12,8 83,0 1,7 211 - 0,0 0 1.026,5
 
03:59 13,9 11,1 12,8 83,0 1,7 180 - 0,0 0 1.026,4
03:58 13,9 11,1 12,8 83,0 1,8 198 - 0,0 0 1.026,4
03:57 13,9 11,1 12,8 83,0 1,8 193 - 0,0 0 1.026,4
03:56 13,9 11,1 12,8 83,0 1,9 190 - 0,0 0 1.026,4
03:55 13,9 11,1 12,9 83,0 2,0 196 - 0,0 0 1.026,4
03:54 13,9 11,1 12,8 83,0 2,2 190 - 0,0 0 1.026,4
03:53 13,9 11,1 12,8 83,0 2,4 176 - 0,0 0 1.026,4
03:52 13,9 11,1 12,8 83,0 2,5 204 - 0,0 0 1.026,3
03:51 13,9 11,1 12,9 83,0 2,4 180 - 0,0 0 1.026,3
03:50 13,9 11,1 12,9 83,0 2,4 200 - 0,0 0 1.026,3
03:49 13,9 11,1 12,8 83,0 2,4 209 - 0,0 0 1.026,3
03:48 13,9 11,0 12,8 82,3 2,3 204 - 0,0 0 1.026,3
03:47 13,9 10,9 12,7 82,0 2,3 211 - 0,0 0 1.026,3
03:46 13,9 10,9 12,7 82,0 2,3 221 - 0,0 0 1.026,3
03:45 13,9 10,9 12,7 82,0 2,2 201 - 0,0 0 1.026,3
03:44 13,9 10,9 12,7 82,0 2,1 195 - 0,0 0 1.026,3
03:43 13,9 10,9 12,7 82,0 2,0 184 - 0,0 0 1.026,4
03:42 13,9 10,9 12,7 82,0 2,0 210 - 0,0 0 1.026,4
03:41 13,9 10,9 12,7 82,0 2,0 192 - 0,0 0 1.026,4
03:40 13,9 10,9 12,7 82,0 1,8 190 - 0,0 0 1.026,4
03:39 13,9 10,9 12,7 82,0 1,6 178 - 0,0 0 1.026,4
03:38 13,9 10,8 12,6 82,0 1,5 186 - 0,0 0 1.026,3
03:37 13,8 10,8 12,6 82,0 1,4 174 - 0,0 0 1.026,3
03:36 13,8 10,8 12,6 82,0 1,3 190 - 0,0 0 1.026,3
03:35 13,8 10,8 12,6 82,0 1,7 175 - 0,0 0 1.026,4
03:34 13,8 10,8 12,6 82,0 2,3 196 - 0,0 0 1.026,3
03:33 13,8 10,8 12,6 82,0 2,7 208 - 0,0 0 1.026,3
03:32 13,8 10,8 12,6 82,0 2,8 200 - 0,0 0 1.026,3
03:31 13,8 10,8 12,6 82,0 2,8 203 - 0,0 0 1.026,3
03:30 13,8 10,8 12,6 82,0 2,6 203 - 0,0 0 1.026,3
03:29 13,8 10,7 12,5 82,0 2,4 210 - 0,0 0 1.026,3
03:28 13,7 10,7 12,5 82,0 2,4 213 - 0,0 0 1.026,3
03:27 13,7 10,7 12,5 82,0 2,5 199 - 0,0 0 1.026,3
03:26 13,7 10,7 12,5 82,0 2,4 193 - 0,0 0 1.026,2
03:25 13,7 10,7 12,5 82,0 2,2 190 - 0,0 0 1.026,2
03:24 13,7 10,5 12,4 81,2 1,9 174 - 0,0 0 1.026,2
03:23 13,7 10,5 12,4 81,0 1,6 181 - 0,0 0 1.026,3
03:22 13,7 10,5 12,4 81,0 1,1 184 - 0,0 0 1.026,3
03:21 13,7 10,5 12,4 81,0 0,5 184 - 0,0 0 1.026,3
03:20 13,7 10,5 12,4 81,0 0,2 130 - 0,0 0 1.026,3
03:19 13,8 10,6 12,4 81,0 0,2 100 - 0,0 0 1.026,3
03:18 13,8 10,6 12,5 81,0 0,3 93 - 0,0 0 1.026,3
03:17 13,8 10,6 12,5 81,0 0,3 159 - 0,0 0 1.026,3
03:16 13,8 10,6 12,5 81,0 0,2 163 - 0,0 0 1.026,3
03:15 13,8 10,6 12,5 81,0 0,2 164 - 0,0 0 1.026,3
03:14 13,8 10,6 12,5 81,0 0,3 176 - 0,0 0 1.026,3
03:13 13,8 10,6 12,5 81,0 0,5 182 - 0,0 0 1.026,2
03:12 13,8 10,6 12,5 81,0 0,7 180 - 0,0 0 1.026,2
03:11 13,8 10,6 12,5 81,0 1,0 182 - 0,0 0 1.026,2
03:10 13,8 10,6 12,5 81,0 1,2 175 - 0,0 0 1.026,2
03:09 13,8 10,6 12,5 81,0 1,5 183 - 0,0 0 1.026,2
03:08 13,8 10,6 12,5 81,0 1,7 178 - 0,0 0 1.026,1
03:07 13,8 10,6 12,5 81,0 1,4 185 - 0,0 0 1.026,1
03:06 13,8 10,6 12,5 81,0 1,0 196 - 0,0 0 1.026,1
03:05 13,8 10,7 12,5 81,0 0,7 172 - 0,0 0 1.026,1
03:04 13,8 10,7 12,5 81,0 0,6 172 - 0,0 0 1.026,2
03:03 13,9 10,7 12,5 81,0 0,3 192 - 0,0 0 1.026,2
03:02 13,9 10,7 12,6 81,0 0,3 173 - 0,0 0 1.026,2
03:01 13,9 10,7 12,6 81,0 0,4 173 - 0,0 0 1.026,2
03:00 13,9 10,7 12,6 81,0 0,5 163 - 0,0 0 1.026,2
 
02:59 13,9 10,8 12,6 81,0 0,5 140 - 0,0 0 1.026,2
02:58 13,9 10,8 12,6 81,0 0,5 110 - 0,0 0 1.026,2
02:57 14,0 10,8 12,7 81,0 0,6 153 - 0,0 0 1.026,1
02:56 14,0 10,8 12,7 81,0 0,8 145 - 0,0 0 1.026,1
02:55 14,0 10,8 12,7 81,0 0,9 158 - 0,0 0 1.026,1
02:54 14,1 10,9 12,7 81,0 0,9 101 - 0,0 0 1.026,2
02:53 14,0 10,9 12,7 81,0 1,0 101 - 0,0 0 1.026,1
02:52 14,1 10,9 12,7 81,0 1,0 98 - 0,0 0 1.026,1
02:51 14,1 10,9 12,8 81,0 1,0 95 - 0,0 0 1.026,1
02:50 14,1 10,9 12,8 81,0 1,0 102 - 0,0 0 1.026,1
02:49 14,1 10,9 12,8 81,0 0,8 107 - 0,0 0 1.026,1
02:48 14,1 10,9 12,8 81,0 0,6 91 - 0,0 0 1.026,1
02:47 14,1 10,9 12,8 81,0 0,6 122 - 0,0 0 1.026,1
02:46 14,2 11,0 12,8 81,0 0,8 132 - 0,0 0 1.026,1
02:45 14,2 11,0 12,8 81,0 0,8 109 - 0,0 0 1.026,1
02:44 14,2 11,0 12,8 81,0 0,7 101 - 0,0 0 1.026,1
02:43 14,2 11,0 12,9 81,0 0,5 138 - 0,0 0 1.026,1
02:42 14,2 11,0 12,9 81,0 0,4 126 - 0,0 0 1.026,1
02:41 14,2 11,0 12,9 81,0 0,4 129 - 0,0 0 1.026,1
02:40 14,2 11,0 12,9 81,0 0,7 130 - 0,0 0 1.026,1
02:39 14,2 11,0 12,9 81,0 0,7 107 - 0,0 0 1.026,1
02:38 14,2 11,0 12,9 81,0 0,5 150 - 0,0 0 1.026,1
02:37 14,3 11,1 12,9 81,0 0,3 161 - 0,0 0 1.026,1
02:36 14,3 11,1 13,0 81,0 0,2 163 - 0,0 0 1.026,1
02:35 14,3 11,1 13,0 81,0 0,3 165 - 0,0 0 1.026,1
02:34 14,3 11,0 12,9 80,6 0,3 167 - 0,0 0 1.026,1
02:33 14,3 10,9 12,8 80,0 0,2 152 - 0,0 0 1.026,1
02:32 14,3 10,9 12,8 80,0 0,2 152 - 0,0 0 1.026,2
02:31 14,3 10,9 12,8 80,0 0,2 151 - 0,0 0 1.026,2
02:30 14,3 10,9 12,8 80,0 0,3 181 - 0,0 0 1.026,1
02:29 14,3 10,9 12,8 80,0 0,5 181 - 0,0 0 1.026,1
02:28 14,3 10,9 12,9 80,0 0,7 165 - 0,0 0 1.026,1
02:27 14,3 10,9 12,8 80,0 0,8 184 - 0,0 0 1.026,1
02:26 14,3 10,9 12,8 80,0 1,1 184 - 0,0 0 1.026,1
02:25 14,3 10,9 12,8 80,0 1,4 165 - 0,0 0 1.026,2
02:24 14,3 10,9 12,9 80,0 1,6 182 - 0,0 0 1.026,2
02:23 14,3 10,9 12,9 80,0 1,7 180 - 0,0 0 1.026,2
02:22 14,3 10,9 12,8 80,0 1,8 180 - 0,0 0 1.026,2
02:21 14,3 10,9 12,9 80,0 2,0 190 - 0,0 0 1.026,3
02:20 14,3 10,9 12,9 80,0 1,9 190 - 0,0 0 1.026,3
02:19 14,3 11,0 12,9 80,0 1,7 202 - 0,0 0 1.026,3
02:18 14,3 11,0 12,9 80,0 1,7 183 - 0,0 0 1.026,4
02:17 14,3 11,0 12,9 80,0 1,8 181 - 0,0 0 1.026,3
02:16 14,4 11,0 12,9 80,0 1,9 178 - 0,0 0 1.026,3
02:15 14,4 11,0 12,9 80,0 2,0 184 - 0,0 0 1.026,3
02:14 14,4 11,0 12,9 80,0 1,9 209 - 0,0 0 1.026,3
02:13 14,4 11,0 12,9 80,0 1,7 191 - 0,0 0 1.026,3
02:12 14,4 11,0 13,0 80,0 1,7 188 - 0,0 0 1.026,4
02:11 14,4 11,0 12,9 79,6 1,9 185 - 0,0 0 1.026,3
02:10 14,4 10,9 12,9 79,0 2,0 177 - 0,0 0 1.026,3
02:09 14,4 10,9 12,9 79,0 2,0 178 - 0,0 0 1.026,4
02:08 14,4 10,9 12,9 79,0 2,1 192 - 0,0 0 1.026,4
02:07 14,4 10,9 12,9 79,0 2,2 196 - 0,0 0 1.026,4
02:06 14,4 10,9 12,9 79,0 2,4 198 - 0,0 0 1.026,4
02:05 14,5 10,9 12,9 79,0 2,3 182 - 0,0 0 1.026,4
02:04 14,5 10,9 12,9 79,0 2,2 183 - 0,0 0 1.026,3
02:03 14,6 11,0 13,0 79,0 2,2 178 - 0,0 0 1.026,3
02:02 14,6 10,8 12,9 78,2 2,3 186 - 0,0 0 1.026,3
02:01 14,6 10,8 12,9 78,0 2,3 175 - 0,0 0 1.026,3
02:00 14,6 10,9 12,9 78,0 2,5 195 - 0,0 0 1.026,3
 
01:59 14,7 10,9 13,0 78,0 2,4 184 - 0,0 0 1.026,3
01:58 14,7 11,0 13,0 78,0 2,2 201 - 0,0 0 1.026,3
01:57 14,8 11,0 13,1 78,0 2,0 182 - 0,0 0 1.026,3
01:56 14,8 11,0 13,1 78,0 1,7 180 - 0,0 0 1.026,3
01:55 14,8 11,0 13,1 78,0 1,3 172 - 0,0 0 1.026,3
01:54 14,8 11,0 13,1 78,0 0,9 182 - 0,0 0 1.026,4
01:53 14,8 11,0 13,1 78,0 0,7 182 - 0,0 0 1.026,4
01:52 14,8 11,1 13,1 78,0 0,8 181 - 0,0 0 1.026,3
01:51 14,8 11,1 13,1 78,0 1,0 185 - 0,0 0 1.026,3
01:50 14,9 11,1 13,2 78,0 1,1 164 - 0,0 0 1.026,3
01:49 14,9 11,1 13,2 78,0 1,1 183 - 0,0 0 1.026,3
01:48 14,9 11,1 13,2 78,0 1,0 175 - 0,0 0 1.026,3
01:47 14,9 11,0 13,1 77,4 1,1 151 - 0,0 0 1.026,3
01:46 14,9 11,0 13,1 77,0 1,5 178 - 0,0 0 1.026,3
01:45 15,0 11,0 13,1 77,0 2,0 180 - 0,0 0 1.026,2
01:44 15,0 11,1 13,2 77,0 2,2 184 - 0,0 0 1.026,2
01:43 15,0 11,1 13,2 77,0 2,3 195 - 0,0 0 1.026,2
01:42 15,1 11,1 13,3 77,0 2,4 194 - 0,0 0 1.026,2
01:41 15,2 11,1 13,3 76,5 2,5 197 - 0,0 0 1.026,2
01:40 15,2 11,1 13,3 76,0 2,5 197 - 0,0 0 1.026,2
01:39 15,3 11,3 13,4 76,8 2,4 194 - 0,0 0 1.026,2
01:38 15,3 11,4 13,5 77,0 2,0 194 - 0,0 0 1.026,2
01:37 15,4 11,4 13,6 77,0 1,5 188 - 0,0 0 1.026,2
01:36 15,4 11,5 13,6 77,0 0,8 173 - 0,0 0 1.026,2
01:35 15,4 11,5 13,6 77,0 0,4 147 - 0,0 0 1.026,2
01:34 15,4 11,5 13,6 77,0 0,2 147 - 0,0 0 1.026,2
01:33 15,4 11,5 13,6 77,0 0,4 147 - 0,0 0 1.026,1
01:32 15,5 11,5 13,6 77,0 0,5 143 - 0,0 0 1.026,2
01:31 15,5 11,5 13,7 77,0 0,6 142 - 0,0 0 1.026,1
01:30 15,5 11,5 13,7 77,0 0,7 97 - 0,0 0 1.026,1
01:29 15,5 11,5 13,7 77,0 0,8 94 - 0,0 0 1.026,1
01:28 15,5 11,6 13,7 77,0 0,7 84 - 0,0 0 1.026,1
01:27 15,6 11,6 13,7 77,0 0,5 157 - 0,0 0 1.026,1
01:26 15,6 11,6 13,7 77,0 0,3 168 - 0,0 0 1.026,2
01:25 15,6 11,6 13,7 77,0 0,2 176 - 0,0 0 1.026,2
01:24 15,6 11,5 13,7 76,6 0,4 176 - 0,0 0 1.026,2
01:23 15,6 11,5 13,7 76,0 1,0 177 - 0,0 0 1.026,1
01:22 15,7 11,5 13,7 76,0 1,5 164 - 0,0 0 1.026,2
01:21 15,7 11,5 13,7 76,0 1,9 181 - 0,0 0 1.026,2
01:20 15,8 11,6 13,8 76,0 2,1 186 - 0,0 0 1.026,2
01:19 15,8 11,6 13,8 76,0 2,1 182 - 0,0 0 1.026,2
01:18 15,8 11,7 13,9 76,0 2,1 187 - 0,0 0 1.026,2
01:17 15,9 11,7 13,9 76,0 2,2 198 - 0,0 0 1.026,2
01:16 15,9 11,7 13,9 76,0 2,1 193 - 0,0 0 1.026,2
01:15 15,9 11,7 14,0 76,0 2,1 208 - 0,0 0 1.026,2
01:14 16,0 11,8 14,0 76,0 2,0 214 - 0,0 0 1.026,2
01:13 16,0 11,7 14,0 75,5 2,0 207 - 0,0 0 1.026,2
01:12 16,0 11,7 14,0 75,0 2,0 228 - 0,0 0 1.026,2
01:11 16,1 11,7 14,0 75,0 2,2 208 - 0,0 0 1.026,2
01:10 16,2 11,8 14,1 75,0 2,2 211 - 0,0 0 1.026,2
01:09 16,2 11,8 14,1 75,0 2,1 197 - 0,0 0 1.026,3
01:08 16,3 11,9 14,2 75,0 1,8 195 - 0,0 0 1.026,2
01:07 16,3 12,0 14,2 75,0 2,0 202 - 0,0 0 1.026,2
01:06 16,4 12,0 14,3 75,0 2,0 175 - 0,0 0 1.026,2
01:05 16,4 12,1 14,3 75,0 1,8 202 - 0,0 0 1.026,2
01:04 16,5 12,1 14,4 75,0 2,0 196 - 0,0 0 1.026,1
01:03 16,5 12,2 14,4 75,0 2,1 206 - 0,0 0 1.026,1
01:02 16,6 12,2 14,5 75,0 2,5 250 - 0,0 0 1.026,1
01:01 16,6 12,2 14,5 75,0 2,1 224 - 0,0 0 1.026,1
01:00 16,7 12,3 14,5 75,0 3,0 232 - 0,0 0 1.026,1
 
00:59 16,7 12,3 14,5 75,0 3,5 226 - 0,0 0 1.026,1
00:58 16,6 12,3 14,5 75,0 4,0 256 - 0,0 0 1.026,1
00:57 16,7 12,3 14,5 75,0 3,8 271 - 0,0 0 1.026,0
00:56 16,7 12,2 14,5 74,8 3,5 271 - 0,0 0 1.026,1
00:55 16,7 12,1 14,4 74,0 3,6 255 - 0,0 0 1.026,1
00:54 16,7 12,1 14,4 74,0 4,1 267 - 0,0 0 1.026,1